Wetterdaten: Freitag, 27.07.2018
Datum Zeit Temp. Aussen Temp. o. S. +5cm Feuchte Auss Luftdruck Regen Sonnenschein Regendauer Solar Windben Empfang
27.07.2018 00:00 24,7 C 23,3 C 22,8 C 70 % 1011,3 hPa 0,0 l/m 0 min 0 min 0 W/m 0,0 km/h (0 Bft) 97,87 %
27.07.2018 00:02 24,6 C 23,3 C 22,8 C 69 % 1011,3 hPa 0,0 l/m 0 min 0 min 0 W/m 0,0 km/h (0 Bft) 97,50 %
27.07.2018 00:04 24,6 C 23,3 C 22,8 C 69 % 1011,3 hPa 0,0 l/m 0 min 0 min 0 W/m 0,0 km/h (0 Bft) 97,87 %
27.07.2018 00:08 24,6 C 23,3 C 22,8 C 69 % 1011,4 hPa 0,0 l/m 0 min 0 min 0 W/m 0,0 km/h (0 Bft) 97,87 %
27.07.2018 00:10 24,6 C 23,3 C 22,8 C 70 % 1011,4 hPa 0,0 l/m 0 min 0 min 0 W/m 0,0 km/h (0 Bft) 95,74 %
27.07.2018 00:12 24,5 C 23,3 C 22,8 C 70 % 1011,4 hPa 0,0 l/m 0 min 0 min 0 W/m 0,0 km/h (0 Bft) 100,00 %
27.07.2018 00:14 24,5 C 23,3 C 22,8 C 70 % 1011,4 hPa 0,0 l/m 0 min 0 min 0 W/m 0,0 km/h (0 Bft) 97,87 %
27.07.2018 00:16 24,5 C 23,3 C 22,8 C 70 % 1011,3 hPa 0,0 l/m 0 min 0 min 0 W/m 0,0 km/h (0 Bft) 97,87 %
27.07.2018 00:18 24,4 C 23,3 C 22,8 C 70 % 1011,4 hPa 0,0 l/m 0 min 0 min 0 W/m 0,0 km/h (0 Bft) 97,87 %
27.07.2018 00:20 24,4 C 23,9 C 22,8 C 69 % 1011,5 hPa 0,0 l/m 0 min 0 min 0 W/m 0,0 km/h (0 Bft) 97,87 %
27.07.2018 00:22 24,4 C 23,9 C 22,8 C 69 % 1011,5 hPa 0,0 l/m 0 min 0 min 0 W/m 0,0 km/h (0 Bft) 95,74 %
27.07.2018 00:24 24,4 C 23,9 C 22,8 C 69 % 1011,5 hPa 0,0 l/m 0 min 0 min 0 W/m 0,0 km/h (0 Bft) 97,14 %
27.07.2018 00:26 24,4 C 23,9 C 22,8 C 69 % 1011,5 hPa 0,0 l/m 0 min 0 min 0 W/m 4,5 km/h (1 Bft) 94,23 %
27.07.2018 00:28 24,4 C 23,9 C 22,8 C 69 % 1011,5 hPa 0,0 l/m 0 min 0 min 0 W/m 2,3 km/h (1 Bft) 95,74 %
27.07.2018 00:30 24,3 C 24,4 C 22,8 C 69 % 1011,5 hPa 0,0 l/m 0 min 0 min 0 W/m 4,5 km/h (1 Bft) 95,12 %
27.07.2018 00:32 24,3 C 25,0 C 22,8 C 68 % 1011,4 hPa 0,0 l/m 0 min 0 min 0 W/m 4,5 km/h (1 Bft) 93,62 %
27.07.2018 00:34 24,3 C 24,4 C 22,8 C 68 % 1011,5 hPa 0,0 l/m 0 min 0 min 0 W/m 2,3 km/h (1 Bft) 97,87 %
27.07.2018 00:38 24,3 C 25,0 C 22,8 C 68 % 1011,5 hPa 0,0 l/m 0 min 0 min 0 W/m 6,8 km/h (2 Bft) 95,10 %
27.07.2018 00:40 24,4 C 25,0 C 23,3 C 68 % 1011,5 hPa 0,0 l/m 0 min 0 min 0 W/m 2,3 km/h (1 Bft) 93,62 %
27.07.2018 00:42 24,4 C 25,0 C 23,3 C 68 % 1011,5 hPa 0,0 l/m 0 min 0 min 0 W/m 4,5 km/h (1 Bft) 93,62 %
27.07.2018 00:44 24,4 C 25,0 C 23,3 C 68 % 1011,5 hPa 0,0 l/m 0 min 0 min 0 W/m 4,5 km/h (1 Bft) 93,62 %
27.07.2018 00:46 24,4 C 25,0 C 23,3 C 67 % 1011,6 hPa 0,0 l/m 0 min 0 min 0 W/m 4,5 km/h (1 Bft) 95,74 %
27.07.2018 00:48 24,4 C 25,0 C 23,3 C 67 % 1011,5 hPa 0,0 l/m 0 min 0 min 0 W/m 4,5 km/h (1 Bft) 95,65 %
27.07.2018 00:50 24,4 C 25,0 C 23,3 C 67 % 1011,5 hPa 0,0 l/m 0 min 0 min 0 W/m 4,5 km/h (1 Bft) 95,74 %
27.07.2018 00:52 24,5 C 25,0 C 23,3 C 66 % 1011,6 hPa 0,0 l/m 0 min 0 min 0 W/m 6,8 km/h (2 Bft) 98,04 %
27.07.2018 00:54 24,5 C 25,6 C 23,3 C 65 % 1011,6 hPa 0,0 l/m 0 min 0 min 0 W/m 4,5 km/h (1 Bft) 93,88 %
27.07.2018 00:56 24,6 C 25,6 C 23,3 C 65 % 1011,6 hPa 0,0 l/m 0 min 0 min 0 W/m 4,5 km/h (1 Bft) 95,74 %
27.07.2018 00:58 24,6 C 25,6 C 23,3 C 65 % 1011,6 hPa 0,0 l/m 0 min 0 min 0 W/m 4,5 km/h (1 Bft) 95,74 %
27.07.2018 01:00 24,6 C 25,6 C 23,3 C 64 % 1011,6 hPa 0,0 l/m 0 min 0 min 0 W/m 9,0 km/h (2 Bft) 95,65 %
27.07.2018 01:02 24,7 C 26,1 C 23,9 C 62 % 1011,6 hPa 0,0 l/m 0 min 0 min 0 W/m 9,0 km/h (2 Bft) 94,29 %
27.07.2018 01:04 24,7 C 26,1 C 23,9 C 61 % 1011,6 hPa 0,0 l/m 0 min 0 min 0 W/m 6,8 km/h (2 Bft) 95,74 %
27.07.2018 01:06 24,8 C 26,1 C 23,9 C 61 % 1011,6 hPa 0,0 l/m 0 min 0 min 0 W/m 9,0 km/h (2 Bft) 96,55 %
27.07.2018 01:08 24,9 C 26,1 C 23,9 C 61 % 1011,6 hPa 0,0 l/m 0 min 0 min 0 W/m 6,8 km/h (2 Bft) 95,74 %
27.07.2018 01:10 25,0 C 26,1 C 23,9 C 61 % 1011,6 hPa 0,0 l/m 0 min 0 min 0 W/m 6,8 km/h (2 Bft) 97,83 %
27.07.2018 01:12 25,1 C 26,1 C 23,9 C 60 % 1011,6 hPa 0,0 l/m 0 min 0 min 0 W/m 4,5 km/h (1 Bft) 91,49 %
27.07.2018 01:14 25,1 C 26,1 C 23,9 C 60 % 1011,6 hPa 0,0 l/m 0 min 0 min 0 W/m 4,5 km/h (1 Bft) 97,87 %
27.07.2018 01:16 25,2 C 26,1 C 23,9 C 59 % 1011,6 hPa 0,0 l/m 0 min 0 min 0 W/m 4,5 km/h (1 Bft) 97,87 %
27.07.2018 01:18 25,2 C 26,1 C 23,9 C 59 % 1011,6 hPa 0,0 l/m 0 min 0 min 0 W/m 6,8 km/h (2 Bft) 97,87 %
27.07.2018 01:20 25,3 C 26,1 C 23,9 C 59 % 1011,6 hPa 0,0 l/m 0 min 0 min 0 W/m 4,5 km/h (1 Bft) 97,87 %
27.07.2018 01:22 25,4 C 25,6 C 23,9 C 59 % 1011,6 hPa 0,0 l/m 0 min 0 min 0 W/m 4,5 km/h (1 Bft) 95,65 %
27.07.2018 01:24 25,4 C 25,6 C 23,9 C 59 % 1011,6 hPa 0,0 l/m 0 min 0 min 0 W/m 4,5 km/h (1 Bft) 97,87 %
27.07.2018 01:26 25,5 C 25,6 C 23,9 C 59 % 1011,6 hPa 0,0 l/m 0 min 0 min 0 W/m 6,8 km/h (2 Bft) 97,87 %
27.07.2018 01:28 25,5 C 25,6 C 23,9 C 58 % 1011,6 hPa 0,0 l/m 0 min 0 min 0 W/m 6,8 km/h (2 Bft) 97,87 %
27.07.2018 01:30 25,6 C 25,6 C 23,9 C 58 % 1011,6 hPa 0,0 l/m 0 min 0 min 0 W/m 4,5 km/h (1 Bft) 97,87 %
27.07.2018 01:32 25,6 C 25,6 C 23,9 C 58 % 1011,6 hPa 0,0 l/m 0 min 0 min 0 W/m 4,5 km/h (1 Bft) 95,83 %
27.07.2018 01:34 25,7 C 25,6 C 23,9 C 58 % 1011,6 hPa 0,0 l/m 0 min 0 min 0 W/m 6,8 km/h (2 Bft) 100,00 %
27.07.2018 01:36 25,7 C 25,6 C 23,9 C 58 % 1011,6 hPa 0,0 l/m 0 min 0 min 0 W/m 4,5 km/h (1 Bft) 97,87 %
27.07.2018 01:38 25,7 C 25,0 C 23,9 C 58 % 1011,6 hPa 0,0 l/m 0 min 0 min 0 W/m 4,5 km/h (1 Bft) 100,00 %
27.07.2018 01:40 25,7 C 25,0 C 23,9 C 58 % 1011,7 hPa 0,0 l/m 0 min 0 min 0 W/m 6,8 km/h (2 Bft) 97,87 %
27.07.2018 01:42 25,7 C 25,0 C 23,3 C 58 % 1011,6 hPa 0,0 l/m 0 min 0 min 0 W/m 4,5 km/h (1 Bft) 97,87 %
27.07.2018 01:44 25,8 C 25,0 C 23,3 C 58 % 1011,6 hPa 0,0 l/m 0 min 0 min 0 W/m 2,3 km/h (1 Bft) 100,00 %
27.07.2018 01:46 25,8 C 25,0 C 23,3 C 58 % 1011,6 hPa 0,0 l/m 0 min 0 min 0 W/m 2,3 km/h (1 Bft) 100,00 %
27.07.2018 01:48 25,8 C 25,0 C 23,3 C 58 % 1011,6 hPa 0,0 l/m 0 min 0 min 0 W/m 4,5 km/h (1 Bft) 100,00 %
27.07.2018 01:50 25,8 C 24,4 C 23,3 C 58 % 1011,6 hPa 0,0 l/m 0 min 0 min 0 W/m 4,5 km/h (1 Bft) 97,87 %
27.07.2018 01:52 25,8 C 24,4 C 23,3 C 58 % 1011,6 hPa 0,0 l/m 0 min 0 min 0 W/m 4,5 km/h (1 Bft) 97,87 %
27.07.2018 01:54 25,8 C 24,4 C 23,3 C 58 % 1011,6 hPa 0,0 l/m 0 min 0 min 0 W/m 6,8 km/h (2 Bft) 97,87 %
27.07.2018 01:56 25,8 C 24,4 C 23,3 C 58 % 1011,6 hPa 0,0 l/m 0 min 0 min 0 W/m 4,5 km/h (1 Bft) 100,00 %
27.07.2018 01:58 25,7 C 24,4 C 23,3 C 58 % 1011,6 hPa 0,0 l/m 0 min 0 min 0 W/m 4,5 km/h (1 Bft) 100,00 %
27.07.2018 02:00 25,7 C 24,4 C 23,3 C 58 % 1011,6 hPa 0,0 l/m 0 min 0 min 0 W/m 6,8 km/h (2 Bft) 100,00 %
27.07.2018 02:02 25,7 C 24,4 C 23,3 C 58 % 1011,6 hPa 0,0 l/m 0 min 0 min 0 W/m 4,5 km/h (1 Bft) 100,00 %
27.07.2018 02:04 25,7 C 24,4 C 23,3 C 58 % 1011,6 hPa 0,0 l/m 0 min 0 min 0 W/m 2,3 km/h (1 Bft) 100,00 %
27.07.2018 02:06 25,7 C 23,9 C 23,3 C 58 % 1011,6 hPa 0,0 l/m 0 min 0 min 0 W/m 2,3 km/h (1 Bft) 100,00 %
27.07.2018 02:08 25,7 C 23,9 C 22,8 C 59 % 1011,5 hPa 0,0 l/m 0 min 0 min 0 W/m 2,3 km/h (1 Bft) 100,00 %
27.07.2018 02:10 25,6 C 23,9 C 22,8 C 59 % 1011,5 hPa 0,0 l/m 0 min 0 min 0 W/m 0,0 km/h (0 Bft) 100,00 %
27.07.2018 02:12 25,6 C 23,9 C 22,8 C 60 % 1011,7 hPa 0,0 l/m 0 min 0 min 0 W/m 0,0 km/h (0 Bft) 100,00 %
27.07.2018 02:14 25,6 C 23,9 C 22,8 C 60 % 1011,6 hPa 0,0 l/m 0 min 0 min 0 W/m 0,0 km/h (0 Bft) 100,00 %
27.07.2018 02:16 25,5 C 23,3 C 22,8 C 60 % 1011,6 hPa 0,0 l/m 0 min 0 min 0 W/m 0,0 km/h (0 Bft) 100,00 %
27.07.2018 02:18 25,4 C 23,3 C 22,8 C 61 % 1011,6 hPa 0,0 l/m 0 min 0 min 0 W/m 0,0 km/h (0 Bft) 100,00 %
27.07.2018 02:20 25,4 C 22,8 C 22,8 C 61 % 1011,6 hPa 0,0 l/m 0 min 0 min 0 W/m 0,0 km/h (0 Bft) 100,00 %
27.07.2018 02:22 25,3 C 22,8 C 22,2 C 62 % 1011,5 hPa 0,0 l/m 0 min 0 min 0 W/m 0,0 km/h (0 Bft) 100,00 %
27.07.2018 02:24 25,3 C 22,8 C 22,2 C 62 % 1011,5 hPa 0,0 l/m 0 min 0 min 0 W/m 0,0 km/h (0 Bft) 100,00 %
27.07.2018 02:26 25,2 C 22,8 C 22,2 C 62 % 1011,5 hPa 0,0 l/m 0 min 0 min 0 W/m 0,0 km/h (0 Bft) 100,00 %
27.07.2018 02:28 25,1 C 22,2 C 22,2 C 63 % 1011,6 hPa 0,0 l/m 0 min 0 min 0 W/m 0,0 km/h (0 Bft) 100,00 %
27.07.2018 02:30 25,1 C 22,2 C 22,2 C 63 % 1011,6 hPa 0,0 l/m 0 min 0 min 0 W/m 0,0 km/h (0 Bft) 100,00 %
27.07.2018 02:32 24,9 C 22,2 C 22,2 C 64 % 1011,6 hPa 0,0 l/m 0 min 0 min 0 W/m 0,0 km/h (0 Bft) 100,00 %
27.07.2018 02:34 24,8 C 22,2 C 21,7 C 64 % 1011,6 hPa 0,0 l/m 0 min 0 min 0 W/m 0,0 km/h (0 Bft) 97,83 %
27.07.2018 02:36 24,8 C 22,2 C 21,7 C 63 % 1011,6 hPa 0,0 l/m 0 min 0 min 0 W/m 0,0 km/h (0 Bft) 100,00 %
27.07.2018 02:38 24,7 C 22,2 C 21,7 C 64 % 1011,5 hPa 0,0 l/m 0 min 0 min 0 W/m 2,3 km/h (1 Bft) 100,00 %
27.07.2018 02:40 24,6 C 22,2 C 21,7 C 64 % 1011,5 hPa 0,0 l/m 0 min 0 min 0 W/m 0,0 km/h (0 Bft) 97,87 %
27.07.2018 02:42 24,5 C 22,2 C 21,7 C 64 % 1011,5 hPa 0,0 l/m 0 min 0 min 0 W/m 0,0 km/h (0 Bft) 97,87 %
27.07.2018 02:44 24,4 C 22,2 C 21,7 C 64 % 1011,5 hPa 0,0 l/m 0 min 0 min 0 W/m 0,0 km/h (0 Bft) 95,74 %
27.07.2018 02:46 24,4 C 22,2 C 21,7 C 64 % 1011,6 hPa 0,0 l/m 0 min 0 min 0 W/m 0,0 km/h (0 Bft) 97,83 %
27.07.2018 02:48 24,3 C 22,2 C 21,7 C 63 % 1011,5 hPa 0,0 l/m 0 min 0 min 0 W/m 2,3 km/h (1 Bft) 100,00 %
27.07.2018 02:50 24,2 C 22,2 C 21,7 C 63 % 1011,5 hPa 0,0 l/m 0 min 0 min 0 W/m 0,0 km/h (0 Bft) 97,87 %
27.07.2018 02:52 24,2 C 22,2 C 21,7 C 63 % 1011,5 hPa 0,0 l/m 0 min 0 min 0 W/m 2,3 km/h (1 Bft) 97,87 %
27.07.2018 02:54 24,1 C 22,2 C 21,7 C 64 % 1011,5 hPa 0,0 l/m 0 min 0 min 0 W/m 0,0 km/h (0 Bft) 97,87 %
27.07.2018 02:56 24,1 C 22,2 C 21,7 C 64 % 1011,5 hPa 0,0 l/m 0 min 0 min 0 W/m 0,0 km/h (0 Bft) 97,83 %
27.07.2018 02:58 24,0 C 21,7 C 21,7 C 65 % 1011,5 hPa 0,0 l/m 0 min 0 min 0 W/m 0,0 km/h (0 Bft) 97,87 %
27.07.2018 03:00 23,9 C 21,7 C 21,1 C 65 % 1011,5 hPa 0,0 l/m 0 min 0 min 0 W/m 0,0 km/h (0 Bft) 100,00 %
27.07.2018 03:02 23,9 C 21,7 C 21,1 C 65 % 1011,5 hPa 0,0 l/m 0 min 0 min 0 W/m 0,0 km/h (0 Bft) 95,92 %
27.07.2018 03:04 23,8 C 21,7 C 21,1 C 65 % 1011,5 hPa 0,0 l/m 0 min 0 min 0 W/m 0,0 km/h (0 Bft) 95,74 %
27.07.2018 03:06 23,7 C 21,7 C 21,1 C 65 % 1011,5 hPa 0,0 l/m 0 min 0 min 0 W/m 0,0 km/h (0 Bft) 93,75 %
27.07.2018 03:08 23,7 C 21,1 C 21,1 C 65 % 1011,5 hPa 0,0 l/m 0 min 0 min 0 W/m 0,0 km/h (0 Bft) 95,65 %
27.07.2018 03:10 23,6 C 21,1 C 21,1 C 65 % 1011,5 hPa 0,0 l/m 0 min 0 min 0 W/m 0,0 km/h (0 Bft) 95,74 %
27.07.2018 03:12 23,5 C 21,1 C 21,1 C 66 % 1011,4 hPa 0,0 l/m 0 min 0 min 0 W/m 2,3 km/h (1 Bft) 91,49 %
27.07.2018 03:14 23,5 C 21,1 C 21,1 C 67 % 1011,4 hPa 0,0 l/m 0 min 0 min 0 W/m 0,0 km/h (0 Bft) 95,74 %
27.07.2018 03:16 23,4 C 21,1 C 21,1 C 67 % 1011,4 hPa 0,0 l/m 0 min 0 min 0 W/m 0,0 km/h (0 Bft) 95,74 %
27.07.2018 03:18 23,3 C 21,1 C 20,6 C 67 % 1011,5 hPa 0,0 l/m 0 min 0 min 0 W/m 0,0 km/h (0 Bft) 95,74 %
27.07.2018 03:20 23,3 C 21,1 C 20,6 C 67 % 1011,4 hPa 0,0 l/m 0 min 0 min 0 W/m 0,0 km/h (0 Bft) 95,65 %
27.07.2018 03:22 23,2 C 21,1 C 20,6 C 67 % 1011,5 hPa 0,0 l/m 0 min 0 min 0 W/m 0,0 km/h (0 Bft) 95,74 %
27.07.2018 03:24 23,2 C 21,1 C 20,6 C 67 % 1011,5 hPa 0,0 l/m 0 min 0 min 0 W/m 0,0 km/h (0 Bft) 95,74 %
27.07.2018 03:26 23,1 C 21,1 C 20,6 C 67 % 1011,4 hPa 0,0 l/m 0 min 0 min 0 W/m 0,0 km/h (0 Bft) 95,74 %
27.07.2018 03:28 23,1 C 21,1 C 20,6 C 67 % 1011,5 hPa 0,0 l/m 0 min 0 min 0 W/m 0,0 km/h (0 Bft) 95,74 %
27.07.2018 03:30 23,0 C 21,1 C 20,6 C 68 % 1011,4 hPa 0,0 l/m 0 min 0 min 0 W/m 0,0 km/h (0 Bft) 97,83 %
27.07.2018 03:32 22,9 C 21,1 C 20,6 C 67 % 1011,5 hPa 0,0 l/m 0 min 0 min 0 W/m 0,0 km/h (0 Bft) 93,88 %
27.07.2018 03:34 22,9 C 21,1 C 20,6 C 68 % 1011,4 hPa 0,0 l/m 0 min 0 min 0 W/m 0,0 km/h (0 Bft) 95,74 %
27.07.2018 03:36 22,8 C 20,6 C 20,6 C 68 % 1011,5 hPa 0,0 l/m 0 min 0 min 0 W/m 0,0 km/h (0 Bft) 95,74 %
27.07.2018 03:38 22,8 C 20,6 C 20,6 C 68 % 1011,4 hPa 0,0 l/m 0 min 0 min 0 W/m 0,0 km/h (0 Bft) 95,74 %
27.07.2018 03:40 22,7 C 20,6 C 20,6 C 68 % 1011,4 hPa 0,0 l/m 0 min 0 min 0 W/m 0,0 km/h (0 Bft) 93,62 %
27.07.2018 03:42 22,7 C 20,6 C 20,6 C 68 % 1011,4 hPa 0,0 l/m 0 min 0 min 0 W/m 0,0 km/h (0 Bft) 95,65 %
27.07.2018 03:44 22,6 C 20,6 C 20,6 C 69 % 1011,3 hPa 0,0 l/m 0 min 0 min 0 W/m 0,0 km/h (0 Bft) 95,74 %
27.07.2018 03:46 22,6 C 20,6 C 20,0 C 69 % 1011,4 hPa 0,0 l/m 0 min 0 min 0 W/m 0,0 km/h (0 Bft) 95,74 %
27.07.2018 03:48 22,5 C 20,6 C 20,0 C 69 % 1011,4 hPa 0,0 l/m 0 min 0 min 0 W/m 0,0 km/h (0 Bft) 97,87 %
27.07.2018 03:50 22,4 C 20,6 C 20,0 C 69 % 1011,3 hPa 0,0 l/m 0 min 0 min 0 W/m 0,0 km/h (0 Bft) 97,87 %
27.07.2018 03:52 22,4 C 20,6 C 20,0 C 70 % 1011,3 hPa 0,0 l/m 0 min 0 min 0 W/m 0,0 km/h (0 Bft) 100,00 %
27.07.2018 03:54 22,3 C 20,0 C 20,0 C 70 % 1011,3 hPa 0,0 l/m 0 min 0 min 0 W/m 0,0 km/h (0 Bft) 97,83 %
27.07.2018 03:56 22,3 C 20,0 C 20,0 C 70 % 1011,3 hPa 0,0 l/m 0 min 0 min 0 W/m 0,0 km/h (0 Bft) 100,00 %
27.07.2018 03:58 22,2 C 20,0 C 20,0 C 70 % 1011,4 hPa 0,0 l/m 0 min 0 min 0 W/m 0,0 km/h (0 Bft) 100,00 %
27.07.2018 04:00 22,2 C 20,0 C 20,0 C 70 % 1011,3 hPa 0,0 l/m 0 min 0 min 0 W/m 0,0 km/h (0 Bft) 100,00 %
27.07.2018 04:05 22,1 C 20,0 C 20,0 C 70 % 1011,3 hPa 0,0 l/m 0 min 0 min 0 W/m 0,0 km/h (0 Bft) 95,89 %
27.07.2018 04:06 22,0 C 20,0 C 20,0 C 71 % 1011,3 hPa 0,0 l/m 0 min 0 min 0 W/m 0,0 km/h (0 Bft) 91,67 %
27.07.2018 04:08 22,0 C 20,0 C 20,0 C 70 % 1011,3 hPa 0,0 l/m 0 min 0 min 0 W/m 0,0 km/h (0 Bft) 95,74 %
27.07.2018 04:10 21,9 C 20,0 C 20,0 C 71 % 1011,2 hPa 0,0 l/m 0 min 0 min 0 W/m 0,0 km/h (0 Bft) 95,65 %
27.07.2018 04:12 21,9 C 20,0 C 20,0 C 71 % 1011,2 hPa 0,0 l/m 0 min 0 min 0 W/m 0,0 km/h (0 Bft) 97,87 %
27.07.2018 04:14 21,8 C 20,0 C 20,0 C 71 % 1011,3 hPa 0,0 l/m 0 min 0 min 0 W/m 0,0 km/h (0 Bft) 97,87 %
27.07.2018 04:16 21,8 C 20,0 C 19,4 C 71 % 1011,3 hPa 0,0 l/m 0 min 0 min 0 W/m 0,0 km/h (0 Bft) 97,87 %
27.07.2018 04:18 21,7 C 20,0 C 19,4 C 71 % 1011,3 hPa 0,0 l/m 0 min 0 min 0 W/m 0,0 km/h (0 Bft) 95,74 %
27.07.2018 04:20 21,7 C 20,0 C 19,4 C 71 % 1011,2 hPa 0,0 l/m 0 min 0 min 0 W/m 0,0 km/h (0 Bft) 97,83 %
27.07.2018 04:22 21,6 C 19,4 C 19,4 C 71 % 1011,2 hPa 0,0 l/m 0 min 0 min 0 W/m 0,0 km/h (0 Bft) 97,87 %
27.07.2018 04:24 21,6 C 19,4 C 19,4 C 71 % 1011,2 hPa 0,0 l/m 0 min 0 min 0 W/m 0,0 km/h (0 Bft) 97,87 %
27.07.2018 04:26 21,6 C 19,4 C 19,4 C 71 % 1011,2 hPa 0,0 l/m 0 min 0 min 0 W/m 0,0 km/h (0 Bft) 95,74 %
27.07.2018 04:28 21,5 C 19,4 C 19,4 C 71 % 1011,2 hPa 0,0 l/m 0 min 0 min 0 W/m 0,0 km/h (0 Bft) 97,87 %
27.07.2018 04:30 21,5 C 19,4 C 19,4 C 72 % 1011,2 hPa 0,0 l/m 0 min 0 min 0 W/m 0,0 km/h (0 Bft) 97,87 %
27.07.2018 04:32 21,4 C 19,4 C 19,4 C 72 % 1011,2 hPa 0,0 l/m 0 min 0 min 0 W/m 0,0 km/h (0 Bft) 97,83 %
27.07.2018 04:34 21,4 C 19,4 C 19,4 C 72 % 1011,2 hPa 0,0 l/m 0 min 0 min 0 W/m 0,0 km/h (0 Bft) 95,74 %
27.07.2018 04:36 21,3 C 19,4 C 19,4 C 71 % 1011,2 hPa 0,0 l/m 0 min 0 min 0 W/m 0,0 km/h (0 Bft) 95,74 %
27.07.2018 04:38 21,3 C 19,4 C 19,4 C 72 % 1011,2 hPa 0,0 l/m 0 min 0 min 0 W/m 0,0 km/h (0 Bft) 95,74 %
27.07.2018 04:40 21,2 C 19,4 C 19,4 C 72 % 1011,2 hPa 0,0 l/m 0 min 0 min 0 W/m 0,0 km/h (0 Bft) 97,87 %
27.07.2018 04:42 21,2 C 19,4 C 19,4 C 72 % 1011,2 hPa 0,0 l/m 0 min 0 min 0 W/m 0,0 km/h (0 Bft) 97,87 %
27.07.2018 04:44 21,2 C 19,4 C 19,4 C 72 % 1011,1 hPa 0,0 l/m 0 min 0 min 0 W/m 0,0 km/h (0 Bft) 97,83 %
27.07.2018 04:46 21,1 C 19,4 C 19,4 C 72 % 1011,2 hPa 0,0 l/m 0 min 0 min 0 W/m 0,0 km/h (0 Bft) 97,87 %
27.07.2018 04:48 21,1 C 19,4 C 19,4 C 72 % 1011,2 hPa 0,0 l/m 0 min 0 min 0 W/m 0,0 km/h (0 Bft) 97,87 %
27.07.2018 04:50 21,1 C 19,4 C 19,4 C 72 % 1011,2 hPa 0,0 l/m 0 min 0 min 0 W/m 0,0 km/h (0 Bft) 93,62 %
27.07.2018 04:52 21,0 C 19,4 C 19,4 C 72 % 1011,2 hPa 0,0 l/m 0 min 0 min 0 W/m 0,0 km/h (0 Bft) 97,87 %
27.07.2018 04:54 21,0 C 19,4 C 19,4 C 72 % 1011,2 hPa 0,0 l/m 0 min 0 min 0 W/m 0,0 km/h (0 Bft) 97,87 %
27.07.2018 04:56 20,9 C 19,4 C 19,4 C 72 % 1011,1 hPa 0,0 l/m 0 min 0 min 0 W/m 0,0 km/h (0 Bft) 97,83 %
27.07.2018 04:58 20,9 C 19,4 C 19,4 C 72 % 1011,1 hPa 0,0 l/m 0 min 0 min 0 W/m 0,0 km/h (0 Bft) 97,87 %
27.07.2018 05:00 20,9 C 19,4 C 18,9 C 72 % 1011,1 hPa 0,0 l/m 0 min 0 min 0 W/m 0,0 km/h (0 Bft) 95,74 %
27.07.2018 05:02 20,9 C 19,4 C 18,9 C 72 % 1011,1 hPa 0,0 l/m 0 min 0 min 0 W/m 0,0 km/h (0 Bft) 95,74 %
27.07.2018 05:04 20,8 C 19,4 C 19,4 C 72 % 1011,1 hPa 0,0 l/m 0 min 0 min 0 W/m 0,0 km/h (0 Bft) 97,87 %
27.07.2018 05:06 20,8 C 19,4 C 19,4 C 72 % 1011,1 hPa 0,0 l/m 0 min 0 min 0 W/m 0,0 km/h (0 Bft) 98,18 %
27.07.2018 05:08 20,8 C 19,4 C 19,4 C 72 % 1011,1 hPa 0,0 l/m 0 min 0 min 0 W/m 0,0 km/h (0 Bft) 97,87 %
27.07.2018 05:10 20,7 C 19,4 C 19,4 C 72 % 1011,1 hPa 0,0 l/m 0 min 0 min 0 W/m 0,0 km/h (0 Bft) 100,00 %
27.07.2018 05:12 20,7 C 19,4 C 19,4 C 72 % 1011,0 hPa 0,0 l/m 0 min 0 min 0 W/m 0,0 km/h (0 Bft) 100,00 %
27.07.2018 05:14 20,7 C 19,4 C 19,4 C 72 % 1011,1 hPa 0,0 l/m 0 min 0 min 0 W/m 0,0 km/h (0 Bft) 97,87 %
27.07.2018 05:16 20,7 C 19,4 C 19,4 C 72 % 1011,0 hPa 0,0 l/m 0 min 0 min 0 W/m 2,3 km/h (1 Bft) 100,00 %
27.07.2018 05:18 20,7 C 19,4 C 19,4 C 72 % 1011,0 hPa 0,0 l/m 0 min 0 min 0 W/m 2,3 km/h (1 Bft) 100,00 %
27.07.2018 05:20 20,6 C 19,4 C 19,4 C 72 % 1011,0 hPa 0,0 l/m 0 min 0 min 0 W/m 0,0 km/h (0 Bft) 100,00 %
27.07.2018 05:22 20,6 C 19,4 C 19,4 C 73 % 1011,1 hPa 0,0 l/m 0 min 0 min 0 W/m 0,0 km/h (0 Bft) 100,00 %
27.07.2018 05:24 20,6 C 19,4 C 19,4 C 73 % 1011,0 hPa 0,0 l/m 0 min 0 min 0 W/m 0,0 km/h (0 Bft) 97,87 %
27.07.2018 05:26 20,6 C 19,4 C 18,9 C 73 % 1011,0 hPa 0,0 l/m 0 min 0 min 0 W/m 0,0 km/h (0 Bft) 100,00 %
27.07.2018 05:28 20,5 C 19,4 C 18,9 C 73 % 1011,0 hPa 0,0 l/m 0 min 0 min 0 W/m 0,0 km/h (0 Bft) 97,83 %
27.07.2018 05:30 20,5 C 19,4 C 18,9 C 73 % 1011,0 hPa 0,0 l/m 0 min 0 min 0 W/m 0,0 km/h (0 Bft) 97,87 %
27.07.2018 05:32 20,5 C 19,4 C 18,9 C 73 % 1011,0 hPa 0,0 l/m 0 min 0 min 0 W/m 0,0 km/h (0 Bft) 97,96 %
27.07.2018 05:34 20,5 C 18,9 C 18,9 C 73 % 1011,0 hPa 0,0 l/m 0 min 0 min 0 W/m 0,0 km/h (0 Bft) 100,00 %
27.07.2018 05:35 20,4 C 18,9 C 18,9 C 73 % 1011,0 hPa 0,0 l/m 0 min 0 min 0 W/m 0,0 km/h (0 Bft) 100,00 %
27.07.2018 05:40 20,4 C 18,9 C 18,9 C 73 % 1011,0 hPa 0,0 l/m 0 min 0 min 0 W/m 0,0 km/h (0 Bft) 95,83 %
27.07.2018 05:42 20,4 C 18,9 C 18,9 C 73 % 1010,9 hPa 0,0 l/m 0 min 0 min 0 W/m 2,3 km/h (1 Bft) 95,65 %
27.07.2018 05:44 20,3 C 18,9 C 18,9 C 73 % 1011,0 hPa 0,0 l/m 0 min 0 min 0 W/m 0,0 km/h (0 Bft) 97,87 %
27.07.2018 05:46 20,3 C 18,9 C 18,9 C 73 % 1011,0 hPa 0,0 l/m 0 min 0 min 0 W/m 0,0 km/h (0 Bft) 100,00 %
27.07.2018 05:48 20,3 C 18,9 C 18,9 C 73 % 1011,0 hPa 0,0 l/m 0 min 0 min 0 W/m 0,0 km/h (0 Bft) 100,00 %
27.07.2018 05:50 20,3 C 18,9 C 18,9 C 73 % 1011,0 hPa 0,0 l/m 0 min 0 min 4 W/m 0,0 km/h (0 Bft) 97,87 %
27.07.2018 05:52 20,3 C 18,9 C 18,9 C 73 % 1011,0 hPa 0,0 l/m 0 min 0 min 5 W/m 0,0 km/h (0 Bft) 94,55 %
27.07.2018 05:54 20,2 C 18,9 C 18,9 C 74 % 1011,0 hPa 0,0 l/m 0 min 0 min 5 W/m 0,0 km/h (0 Bft) 95,92 %
27.07.2018 05:56 20,2 C 18,9 C 18,9 C 73 % 1011,1 hPa 0,0 l/m 0 min 0 min 5 W/m 0,0 km/h (0 Bft) 95,74 %
27.07.2018 05:58 20,2 C 18,9 C 18,9 C 73 % 1011,1 hPa 0,0 l/m 0 min 0 min 7 W/m 2,3 km/h (1 Bft) 93,62 %
27.07.2018 06:00 20,2 C 18,9 C 18,9 C 73 % 1011,1 hPa 0,0 l/m 0 min 0 min 7 W/m 0,0 km/h (0 Bft) 95,74 %
27.07.2018 06:02 20,2 C 18,9 C 18,9 C 73 % 1011,1 hPa 0,0 l/m 0 min 0 min 7 W/m 0,0 km/h (0 Bft) 95,74 %
27.07.2018 06:04 20,2 C 18,9 C 18,9 C 73 % 1011,1 hPa 0,0 l/m 0 min 0 min 9 W/m 0,0 km/h (0 Bft) 95,74 %
27.07.2018 06:08 20,1 C 18,9 C 18,9 C 74 % 1011,1 hPa 0,0 l/m 0 min 0 min 10 W/m 0,0 km/h (0 Bft) 94,68 %
27.07.2018 06:10 20,1 C 18,9 C 18,9 C 74 % 1011,0 hPa 0,0 l/m 0 min 0 min 11 W/m 0,0 km/h (0 Bft) 95,74 %
27.07.2018 06:12 20,1 C 18,9 C 18,3 C 74 % 1011,0 hPa 0,0 l/m 0 min 0 min 12 W/m 0,0 km/h (0 Bft) 95,74 %
27.07.2018 06:14 20,1 C 18,9 C 18,3 C 74 % 1011,0 hPa 0,0 l/m 0 min 0 min 12 W/m 0,0 km/h (0 Bft) 95,65 %
27.07.2018 06:16 20,0 C 18,9 C 18,3 C 74 % 1010,9 hPa 0,0 l/m 0 min 0 min 13 W/m 0,0 km/h (0 Bft) 95,74 %
27.07.2018 06:18 20,0 C 18,9 C 18,3 C 74 % 1011,0 hPa 0,0 l/m 0 min 0 min 14 W/m 0,0 km/h (0 Bft) 97,87 %
27.07.2018 06:20 20,0 C 18,9 C 18,3 C 74 % 1011,0 hPa 0,0 l/m 0 min 0 min 16 W/m 0,0 km/h (0 Bft) 95,74 %
27.07.2018 06:22 20,0 C 18,9 C 18,3 C 74 % 1011,0 hPa 0,0 l/m 0 min 0 min 16 W/m 0,0 km/h (0 Bft) 95,74 %
27.07.2018 06:24 19,9 C 18,9 C 18,3 C 74 % 1011,0 hPa 0,0 l/m 0 min 0 min 18 W/m 0,0 km/h (0 Bft) 94,29 %
27.07.2018 06:26 19,9 C 18,9 C 18,3 C 74 % 1011,1 hPa 0,0 l/m 0 min 0 min 18 W/m 0,0 km/h (0 Bft) 95,74 %
27.07.2018 06:28 19,9 C 18,9 C 18,3 C 75 % 1011,0 hPa 0,0 l/m 0 min 0 min 19 W/m 0,0 km/h (0 Bft) 93,62 %
27.07.2018 06:30 19,9 C 18,9 C 18,3 C 74 % 1011,1 hPa 0,0 l/m 0 min 0 min 19 W/m 0,0 km/h (0 Bft) 95,65 %
27.07.2018 06:32 19,9 C 18,9 C 18,3 C 74 % 1011,0 hPa 0,0 l/m 0 min 0 min 19 W/m 0,0 km/h (0 Bft) 93,62 %
27.07.2018 06:34 19,9 C 18,9 C 18,3 C 74 % 1011,1 hPa 0,0 l/m 0 min 0 min 21 W/m 0,0 km/h (0 Bft) 95,74 %
27.07.2018 06:36 19,9 C 18,9 C 18,3 C 75 % 1011,1 hPa 0,0 l/m 0 min 0 min 21 W/m 0,0 km/h (0 Bft) 97,87 %
27.07.2018 06:38 19,8 C 18,9 C 18,3 C 75 % 1011,1 hPa 0,0 l/m 0 min 0 min 21 W/m 0,0 km/h (0 Bft) 100,00 %
27.07.2018 06:40 19,8 C 18,9 C 18,3 C 75 % 1011,1 hPa 0,0 l/m 0 min 0 min 23 W/m 2,3 km/h (1 Bft) 100,00 %
27.07.2018 06:42 19,8 C 18,9 C 18,3 C 75 % 1011,1 hPa 0,0 l/m 0 min 0 min 23 W/m 0,0 km/h (0 Bft) 100,00 %
27.07.2018 06:44 19,8 C 18,9 C 18,3 C 75 % 1011,0 hPa 0,0 l/m 0 min 0 min 23 W/m 0,0 km/h (0 Bft) 100,00 %
27.07.2018 06:46 19,8 C 18,9 C 18,3 C 75 % 1011,1 hPa 0,0 l/m 0 min 0 min 24 W/m 0,0 km/h (0 Bft) 97,87 %
27.07.2018 06:48 19,8 C 18,9 C 18,3 C 76 % 1011,1 hPa 0,0 l/m 0 min 0 min 25 W/m 0,0 km/h (0 Bft) 100,00 %
27.07.2018 06:50 19,8 C 18,9 C 18,3 C 76 % 1011,0 hPa 0,0 l/m 0 min 0 min 25 W/m 0,0 km/h (0 Bft) 100,00 %
27.07.2018 06:52 19,8 C 18,9 C 18,3 C 76 % 1011,1 hPa 0,0 l/m 0 min 0 min 26 W/m 0,0 km/h (0 Bft) 100,00 %
27.07.2018 06:54 19,7 C 18,9 C 18,3 C 76 % 1011,1 hPa 0,0 l/m 0 min 0 min 26 W/m 0,0 km/h (0 Bft) 98,11 %
27.07.2018 06:56 19,7 C 18,9 C 18,3 C 76 % 1011,1 hPa 0,0 l/m 0 min 0 min 26 W/m 0,0 km/h (0 Bft) 100,00 %
27.07.2018 06:58 19,7 C 18,9 C 18,3 C 77 % 1011,1 hPa 0,0 l/m 0 min 0 min 27 W/m 0,0 km/h (0 Bft) 100,00 %
27.07.2018 07:00 19,7 C 19,4 C 18,9 C 77 % 1011,2 hPa 0,0 l/m 0 min 0 min 28 W/m 0,0 km/h (0 Bft) 100,00 %
27.07.2018 07:02 19,7 C 19,4 C 18,9 C 77 % 1011,2 hPa 0,0 l/m 0 min 0 min 28 W/m 2,3 km/h (1 Bft) 100,00 %
27.07.2018 07:04 19,7 C 19,4 C 18,9 C 77 % 1011,2 hPa 0,0 l/m 0 min 0 min 28 W/m 0,0 km/h (0 Bft) 95,24 %
27.07.2018 07:06 19,7 C 19,4 C 18,9 C 78 % 1011,2 hPa 0,0 l/m 0 min 0 min 28 W/m 0,0 km/h (0 Bft) 100,00 %
27.07.2018 07:08 19,7 C 19,4 C 18,9 C 78 % 1011,2 hPa 0,0 l/m 0 min 0 min 30 W/m 0,0 km/h (0 Bft) 100,00 %
27.07.2018 07:10 19,7 C 19,4 C 18,9 C 78 % 1011,2 hPa 0,0 l/m 0 min 0 min 30 W/m 2,3 km/h (1 Bft) 100,00 %
27.07.2018 07:12 19,7 C 19,4 C 18,9 C 78 % 1011,3 hPa 0,0 l/m 0 min 0 min 30 W/m 0,0 km/h (0 Bft) 100,00 %
27.07.2018 07:14 19,7 C 20,0 C 18,9 C 78 % 1011,2 hPa 0,0 l/m 0 min 0 min 30 W/m 0,0 km/h (0 Bft) 95,74 %
27.07.2018 07:16 19,7 C 20,0 C 18,9 C 78 % 1011,1 hPa 0,0 l/m 0 min 0 min 32 W/m 0,0 km/h (0 Bft) 100,00 %
27.07.2018 07:18 19,7 C 20,0 C 18,9 C 78 % 1011,2 hPa 0,0 l/m 0 min 0 min 32 W/m 0,0 km/h (0 Bft) 100,00 %
27.07.2018 07:20 19,7 C 20,0 C 18,9 C 78 % 1011,2 hPa 0,0 l/m 0 min 0 min 32 W/m 0,0 km/h (0 Bft) 100,00 %
27.07.2018 07:22 19,7 C 20,0 C 18,9 C 78 % 1011,2 hPa 0,0 l/m 0 min 0 min 32 W/m 2,3 km/h (1 Bft) 100,00 %
27.07.2018 07:24 19,7 C 20,0 C 18,9 C 78 % 1011,2 hPa 0,0 l/m 0 min 0 min 33 W/m 2,3 km/h (1 Bft) 100,00 %
27.07.2018 07:26 19,7 C 20,0 C 18,9 C 79 % 1011,2 hPa 0,0 l/m 0 min 0 min 33 W/m 2,3 km/h (1 Bft) 100,00 %
27.07.2018 07:28 19,7 C 20,6 C 18,9 C 79 % 1011,3 hPa 0,0 l/m 0 min 0 min 33 W/m 0,0 km/h (0 Bft) 100,00 %
27.07.2018 07:30 19,7 C 20,6 C 18,9 C 79 % 1011,2 hPa 0,0 l/m 0 min 0 min 35 W/m 0,0 km/h (0 Bft) 100,00 %
27.07.2018 07:32 19,7 C 20,6 C 18,9 C 79 % 1011,2 hPa 0,0 l/m 0 min 0 min 35 W/m 0,0 km/h (0 Bft) 100,00 %
27.07.2018 07:34 19,7 C 21,1 C 19,4 C 79 % 1011,2 hPa 0,0 l/m 0 min 0 min 35 W/m 4,5 km/h (1 Bft) 100,00 %
27.07.2018 07:36 19,7 C 21,1 C 19,4 C 78 % 1011,2 hPa 0,0 l/m 0 min 0 min 37 W/m 2,3 km/h (1 Bft) 100,00 %
27.07.2018 07:38 19,8 C 21,7 C 19,4 C 78 % 1011,2 hPa 0,0 l/m 0 min 0 min 37 W/m 6,8 km/h (2 Bft) 100,00 %
27.07.2018 07:40 19,8 C 22,2 C 19,4 C 77 % 1011,2 hPa 0,0 l/m 0 min 0 min 37 W/m 2,3 km/h (1 Bft) 100,00 %
27.07.2018 07:42 19,8 C 22,2 C 19,4 C 77 % 1011,2 hPa 0,0 l/m 0 min 0 min 39 W/m 4,5 km/h (1 Bft) 100,00 %
27.07.2018 07:44 19,9 C 22,2 C 19,4 C 76 % 1011,2 hPa 0,0 l/m 0 min 0 min 39 W/m 6,8 km/h (2 Bft) 97,87 %
27.07.2018 07:46 19,9 C 22,8 C 20,0 C 75 % 1011,2 hPa 0,0 l/m 0 min 0 min 39 W/m 6,8 km/h (2 Bft) 97,87 %
27.07.2018 07:48 20,1 C 22,8 C 20,0 C 76 % 1011,2 hPa 0,0 l/m 0 min 0 min 40 W/m 4,5 km/h (1 Bft) 97,87 %
27.07.2018 07:50 20,2 C 22,8 C 20,0 C 75 % 1011,2 hPa 0,0 l/m 0 min 0 min 40 W/m 2,3 km/h (1 Bft) 97,83 %
27.07.2018 07:52 20,3 C 22,8 C 20,0 C 75 % 1011,2 hPa 0,0 l/m 0 min 0 min 40 W/m 4,5 km/h (1 Bft) 97,87 %
27.07.2018 07:54 20,4 C 23,3 C 20,0 C 74 % 1011,2 hPa 0,0 l/m 0 min 0 min 40 W/m 4,5 km/h (1 Bft) 98,18 %
27.07.2018 07:56 20,5 C 22,8 C 20,0 C 74 % 1011,2 hPa 0,0 l/m 0 min 0 min 42 W/m 0,0 km/h (0 Bft) 97,87 %
27.07.2018 07:58 20,6 C 23,3 C 20,0 C 74 % 1011,2 hPa 0,0 l/m 0 min 0 min 42 W/m 4,5 km/h (1 Bft) 97,87 %
27.07.2018 08:00 20,7 C 23,3 C 20,0 C 74 % 1011,3 hPa 0,0 l/m 0 min 0 min 42 W/m 4,5 km/h (1 Bft) 97,87 %
27.07.2018 08:02 20,8 C 23,3 C 20,6 C 73 % 1011,2 hPa 0,0 l/m 0 min 0 min 44 W/m 6,8 km/h (2 Bft) 95,65 %
27.07.2018 08:04 20,9 C 23,3 C 20,6 C 72 % 1011,3 hPa 0,0 l/m 0 min 0 min 44 W/m 6,8 km/h (2 Bft) 95,74 %
27.07.2018 08:06 21,0 C 23,3 C 20,6 C 72 % 1011,3 hPa 0,0 l/m 0 min 0 min 45 W/m 4,5 km/h (1 Bft) 95,74 %
27.07.2018 08:08 21,1 C 23,9 C 20,6 C 72 % 1011,3 hPa 0,0 l/m 0 min 0 min 46 W/m 4,5 km/h (1 Bft) 95,74 %
27.07.2018 08:10 21,3 C 23,9 C 20,6 C 71 % 1011,2 hPa 0,0 l/m 0 min 0 min 46 W/m 6,8 km/h (2 Bft) 97,87 %
27.07.2018 08:12 21,4 C 23,9 C 21,1 C 71 % 1011,2 hPa 0,0 l/m 0 min 0 min 47 W/m 4,5 km/h (1 Bft) 95,74 %
27.07.2018 08:14 21,5 C 23,9 C 21,1 C 71 % 1011,3 hPa 0,0 l/m 0 min 0 min 47 W/m 4,5 km/h (1 Bft) 97,83 %
27.07.2018 08:16 21,6 C 23,9 C 21,1 C 70 % 1011,2 hPa 0,0 l/m 0 min 0 min 48 W/m 4,5 km/h (1 Bft) 93,62 %
27.07.2018 08:18 21,8 C 24,4 C 21,1 C 69 % 1011,3 hPa 0,0 l/m 0 min 0 min 49 W/m 6,8 km/h (2 Bft) 97,87 %
27.07.2018 08:20 21,9 C 24,4 C 21,7 C 69 % 1011,4 hPa 0,0 l/m 0 min 0 min 50 W/m 4,5 km/h (1 Bft) 97,87 %
27.07.2018 08:22 22,1 C 24,4 C 21,7 C 69 % 1011,3 hPa 0,0 l/m 0 min 0 min 51 W/m 6,8 km/h (2 Bft) 97,87 %
27.07.2018 08:24 22,2 C 24,4 C 21,7 C 68 % 1011,3 hPa 0,0 l/m 0 min 0 min 53 W/m 4,5 km/h (1 Bft) 97,87 %
27.07.2018 08:26 22,3 C 25,0 C 21,7 C 67 % 1011,2 hPa 0,0 l/m 0 min 0 min 54 W/m 4,5 km/h (1 Bft) 95,65 %
27.07.2018 08:28 22,4 C 25,0 C 21,7 C 68 % 1011,2 hPa 0,0 l/m 0 min 0 min 56 W/m 6,8 km/h (2 Bft) 97,87 %
27.07.2018 08:30 22,6 C 25,0 C 21,7 C 67 % 1011,2 hPa 0,0 l/m 0 min 0 min 64 W/m 6,8 km/h (2 Bft) 95,74 %
27.07.2018 08:32 22,7 C 25,0 C 21,7 C 66 % 1011,3 hPa 0,0 l/m 0 min 0 min 148 W/m 4,5 km/h (1 Bft) 95,74 %
27.07.2018 08:34 22,9 C 25,0 C 21,7 C 66 % 1011,3 hPa 0,0 l/m 2 min 0 min 248 W/m 6,8 km/h (2 Bft) 93,62 %
27.07.2018 08:36 23,0 C 25,0 C 22,2 C 65 % 1011,3 hPa 0,0 l/m 2 min 0 min 286 W/m 6,8 km/h (2 Bft) 93,62 %
27.07.2018 08:38 23,1 C 25,6 C 22,2 C 65 % 1011,3 hPa 0,0 l/m 2 min 0 min 292 W/m 6,8 km/h (2 Bft) 93,48 %
27.07.2018 08:40 23,2 C 25,6 C 22,2 C 65 % 1011,3 hPa 0,0 l/m 2 min 0 min 298 W/m 9,0 km/h (2 Bft) 95,74 %
27.07.2018 08:42 23,4 C 25,6 C 22,8 C 64 % 1011,3 hPa 0,0 l/m 2 min 0 min 306 W/m 9,0 km/h (2 Bft) 95,74 %
27.07.2018 08:44 23,6 C 25,6 C 22,8 C 64 % 1011,2 hPa 0,0 l/m 2 min 0 min 312 W/m 9,0 km/h (2 Bft) 93,62 %
27.07.2018 08:46 23,7 C 26,1 C 22,8 C 63 % 1011,2 hPa 0,0 l/m 2 min 0 min 317 W/m 6,8 km/h (2 Bft) 93,62 %
27.07.2018 08:48 23,8 C 26,1 C 22,8 C 63 % 1011,2 hPa 0,0 l/m 2 min 0 min 321 W/m 4,5 km/h (1 Bft) 93,48 %
27.07.2018 08:50 24,0 C 26,1 C 22,8 C 63 % 1011,2 hPa 0,0 l/m 2 min 0 min 326 W/m 4,5 km/h (1 Bft) 95,74 %
27.07.2018 08:52 24,1 C 26,1 C 22,8 C 63 % 1011,2 hPa 0,0 l/m 2 min 0 min 332 W/m 6,8 km/h (2 Bft) 95,74 %
27.07.2018 08:54 24,2 C 26,1 C 23,3 C 63 % 1011,3 hPa 0,0 l/m 2 min 0 min 338 W/m 9,0 km/h (2 Bft) 95,74 %
27.07.2018 08:56 24,3 C 26,7 C 23,3 C 62 % 1011,2 hPa 0,0 l/m 2 min 0 min 343 W/m 6,8 km/h (2 Bft) 93,62 %
27.07.2018 08:58 24,4 C 26,7 C 23,3 C 62 % 1011,2 hPa 0,0 l/m 2 min 0 min 350 W/m 6,8 km/h (2 Bft) 95,74 %
27.07.2018 09:00 24,6 C 26,7 C 23,3 C 62 % 1011,2 hPa 0,0 l/m 2 min 0 min 355 W/m 4,5 km/h (1 Bft) 93,62 %
27.07.2018 09:02 24,7 C 26,7 C 23,3 C 62 % 1011,2 hPa 0,0 l/m 2 min 0 min 360 W/m 6,8 km/h (2 Bft) 95,65 %
27.07.2018 09:04 24,8 C 27,2 C 23,3 C 61 % 1011,2 hPa 0,0 l/m 2 min 0 min 365 W/m 6,8 km/h (2 Bft) 95,74 %
27.07.2018 09:06 25,0 C 27,2 C 23,3 C 61 % 1011,2 hPa 0,0 l/m 2 min 0 min 371 W/m 6,8 km/h (2 Bft) 93,62 %
27.07.2018 09:08 25,1 C 27,2 C 23,9 C 61 % 1011,2 hPa 0,0 l/m 2 min 0 min 376 W/m 9,0 km/h (2 Bft) 95,74 %
27.07.2018 09:10 25,2 C 27,2 C 23,9 C 60 % 1011,1 hPa 0,0 l/m 2 min 0 min 384 W/m 11,3 km/h (2 Bft) 93,75 %
27.07.2018 09:12 25,4 C 27,2 C 23,9 C 59 % 1011,1 hPa 0,0 l/m 2 min 0 min 388 W/m 6,8 km/h (2 Bft) 95,65 %
27.07.2018 09:14 25,5 C 27,2 C 23,9 C 59 % 1011,1 hPa 0,0 l/m 2 min 0 min 391 W/m 6,8 km/h (2 Bft) 93,62 %
27.07.2018 09:16 25,7 C 27,8 C 24,4 C 58 % 1011,1 hPa 0,0 l/m 2 min 0 min 397 W/m 6,8 km/h (2 Bft) 95,74 %
27.07.2018 09:18 25,8 C 27,8 C 24,4 C 58 % 1011,1 hPa 0,0 l/m 2 min 0 min 402 W/m 9,0 km/h (2 Bft) 97,87 %
27.07.2018 09:20 25,9 C 27,8 C 24,4 C 57 % 1011,1 hPa 0,0 l/m 2 min 0 min 408 W/m 11,3 km/h (2 Bft) 97,87 %
27.07.2018 09:22 26,1 C 27,8 C 24,4 C 58 % 1011,1 hPa 0,0 l/m 2 min 0 min 414 W/m 4,5 km/h (1 Bft) 97,87 %
27.07.2018 09:24 26,2 C 28,3 C 24,4 C 57 % 1011,1 hPa 0,0 l/m 2 min 0 min 420 W/m 11,3 km/h (2 Bft) 100,00 %
27.07.2018 09:26 26,3 C 28,3 C 24,4 C 56 % 1011,1 hPa 0,0 l/m 2 min 0 min 427 W/m 11,3 km/h (2 Bft) 97,87 %
27.07.2018 09:28 26,4 C 28,3 C 24,4 C 57 % 1011,2 hPa 0,0 l/m 2 min 0 min 424 W/m 6,8 km/h (2 Bft) 100,00 %
27.07.2018 09:30 26,5 C 28,3 C 24,4 C 57 % 1011,1 hPa 0,0 l/m 2 min 0 min 423 W/m 6,8 km/h (2 Bft) 100,00 %
27.07.2018 09:32 26,6 C 28,3 C 24,4 C 56 % 1011,0 hPa 0,0 l/m 2 min 0 min 425 W/m 6,8 km/h (2 Bft) 100,00 %
27.07.2018 09:34 26,7 C 28,3 C 24,4 C 56 % 1011,1 hPa 0,0 l/m 2 min 0 min 433 W/m 9,0 km/h (2 Bft) 100,00 %
27.07.2018 09:36 26,8 C 28,3 C 25,0 C 55 % 1011,1 hPa 0,0 l/m 2 min 0 min 444 W/m 11,3 km/h (2 Bft) 100,00 %
27.07.2018 09:38 26,9 C 28,9 C 25,0 C 55 % 1011,1 hPa 0,0 l/m 2 min 0 min 455 W/m 6,8 km/h (2 Bft) 100,00 %
27.07.2018 09:40 27,0 C 28,9 C 25,0 C 55 % 1011,0 hPa 0,0 l/m 2 min 0 min 463 W/m 11,3 km/h (2 Bft) 100,00 %
27.07.2018 09:42 27,1 C 28,9 C 25,0 C 54 % 1011,0 hPa 0,0 l/m 2 min 0 min 454 W/m 6,8 km/h (2 Bft) 97,87 %
27.07.2018 09:44 27,3 C 28,9 C 25,0 C 54 % 1011,0 hPa 0,0 l/m 2 min 0 min 469 W/m 6,8 km/h (2 Bft) 97,87 %
27.07.2018 09:46 27,3 C 29,4 C 25,0 C 54 % 1011,0 hPa 0,0 l/m 2 min 0 min 473 W/m 9,0 km/h (2 Bft) 95,74 %
27.07.2018 09:48 27,4 C 29,4 C 25,0 C 54 % 1011,0 hPa 0,0 l/m 2 min 0 min 459 W/m 9,0 km/h (2 Bft) 100,00 %
27.07.2018 09:50 27,6 C 29,4 C 25,0 C 54 % 1011,0 hPa 0,0 l/m 2 min 0 min 473 W/m 11,3 km/h (2 Bft) 100,00 %
27.07.2018 09:52 27,7 C 30,0 C 25,6 C 54 % 1011,0 hPa 0,0 l/m 2 min 0 min 490 W/m 6,8 km/h (2 Bft) 100,00 %
27.07.2018 09:54 27,8 C 31,1 C 25,6 C 53 % 1011,0 hPa 0,0 l/m 2 min 0 min 497 W/m 9,0 km/h (2 Bft) 100,00 %
27.07.2018 09:56 27,8 C 32,2 C 25,6 C 53 % 1011,0 hPa 0,0 l/m 2 min 0 min 497 W/m 6,8 km/h (2 Bft) 97,87 %
27.07.2018 09:58 27,9 C 32,2 C 25,6 C 54 % 1011,0 hPa 0,0 l/m 2 min 0 min 499 W/m 6,8 km/h (2 Bft) 100,00 %
27.07.2018 10:00 28,1 C 32,2 C 25,6 C 53 % 1011,0 hPa 0,0 l/m 2 min 0 min 500 W/m 6,8 km/h (2 Bft) 100,00 %
27.07.2018 10:02 28,2 C 32,8 C 25,6 C 53 % 1011,0 hPa 0,0 l/m 2 min 0 min 504 W/m 6,8 km/h (2 Bft) 100,00 %
27.07.2018 10:04 28,2 C 32,8 C 25,6 C 53 % 1010,9 hPa 0,0 l/m 2 min 0 min 509 W/m 4,5 km/h (1 Bft) 100,00 %
27.07.2018 10:06 28,3 C 31,1 C 25,6 C 52 % 1010,9 hPa 0,0 l/m 2 min 0 min 513 W/m 11,3 km/h (2 Bft) 100,00 %
27.07.2018 10:08 28,4 C 31,1 C 25,6 C 54 % 1010,9 hPa 0,0 l/m 2 min 0 min 518 W/m 4,5 km/h (1 Bft) 100,00 %
27.07.2018 10:10 28,6 C 30,6 C 25,6 C 52 % 1010,9 hPa 0,0 l/m 2 min 0 min 525 W/m 6,8 km/h (2 Bft) 100,00 %
27.07.2018 10:12 28,7 C 30,6 C 25,6 C 52 % 1010,9 hPa 0,0 l/m 2 min 0 min 531 W/m 6,8 km/h (2 Bft) 100,00 %
27.07.2018 10:14 28,8 C 30,6 C 25,6 C 52 % 1010,8 hPa 0,0 l/m 2 min 0 min 535 W/m 6,8 km/h (2 Bft) 100,00 %
27.07.2018 10:16 28,9 C 30,6 C 26,1 C 53 % 1010,9 hPa 0,0 l/m 2 min 0 min 540 W/m 13,5 km/h (3 Bft) 100,00 %
27.07.2018 10:18 28,9 C 31,1 C 26,1 C 52 % 1010,8 hPa 0,0 l/m 2 min 0 min 548 W/m 9,0 km/h (2 Bft) 100,00 %
27.07.2018 10:20 29,1 C 31,1 C 26,1 C 51 % 1010,8 hPa 0,0 l/m 2 min 0 min 553 W/m 9,0 km/h (2 Bft) 100,00 %
27.07.2018 10:22 29,2 C 31,7 C 26,1 C 51 % 1010,8 hPa 0,0 l/m 2 min 0 min 560 W/m 13,5 km/h (3 Bft) 100,00 %
27.07.2018 10:24 29,3 C 31,7 C 26,1 C 50 % 1010,8 hPa 0,0 l/m 2 min 0 min 565 W/m 9,0 km/h (2 Bft) 100,00 %
27.07.2018 10:26 29,3 C 31,1 C 26,1 C 51 % 1010,8 hPa 0,0 l/m 2 min 0 min 569 W/m 6,8 km/h (2 Bft) 100,00 %
27.07.2018 10:28 29,4 C 31,1 C 26,1 C 51 % 1010,8 hPa 0,0 l/m 2 min 0 min 574 W/m 9,0 km/h (2 Bft) 100,00 %
27.07.2018 10:30 29,5 C 31,7 C 26,7 C 52 % 1010,8 hPa 0,0 l/m 2 min 0 min 578 W/m 4,5 km/h (1 Bft) 100,00 %
27.07.2018 10:32 29,6 C 32,2 C 26,7 C 53 % 1010,8 hPa 0,0 l/m 2 min 0 min 584 W/m 6,8 km/h (2 Bft) 100,00 %
27.07.2018 10:34 29,7 C 32,2 C 26,7 C 50 % 1010,8 hPa 0,0 l/m 2 min 0 min 590 W/m 11,3 km/h (2 Bft) 97,83 %
27.07.2018 10:36 29,8 C 32,8 C 27,2 C 50 % 1010,8 hPa 0,0 l/m 2 min 0 min 594 W/m 9,0 km/h (2 Bft) 100,00 %
27.07.2018 10:38 29,8 C 33,9 C 26,7 C 49 % 1010,8 hPa 0,0 l/m 2 min 0 min 597 W/m 13,5 km/h (3 Bft) 100,00 %
27.07.2018 10:40 29,9 C 35,0 C 27,2 C 49 % 1010,8 hPa 0,0 l/m 2 min 0 min 600 W/m 15,8 km/h (3 Bft) 100,00 %
27.07.2018 10:42 30,1 C 35,6 C 26,7 C 48 % 1010,7 hPa 0,0 l/m 2 min 0 min 604 W/m 11,3 km/h (2 Bft) 100,00 %
27.07.2018 10:44 30,2 C 36,7 C 26,7 C 48 % 1010,7 hPa 0,0 l/m 2 min 0 min 608 W/m 6,8 km/h (2 Bft) 100,00 %
27.07.2018 10:46 30,3 C 37,8 C 27,2 C 48 % 1010,7 hPa 0,0 l/m 2 min 0 min 611 W/m 13,5 km/h (3 Bft) 97,83 %
27.07.2018 10:48 30,4 C 38,3 C 27,2 C 49 % 1010,7 hPa 0,0 l/m 2 min 0 min 614 W/m 11,3 km/h (2 Bft) 97,87 %
27.07.2018 10:50 30,5 C 37,8 C 27,2 C 48 % 1010,7 hPa 0,0 l/m 2 min 0 min 619 W/m 11,3 km/h (2 Bft) 100,00 %
27.07.2018 10:52 30,6 C 38,3 C 27,2 C 49 % 1010,7 hPa 0,0 l/m 2 min 0 min 624 W/m 9,0 km/h (2 Bft) 100,00 %
27.07.2018 10:54 30,8 C 38,3 C 27,8 C 47 % 1010,7 hPa 0,0 l/m 2 min 0 min 628 W/m 11,3 km/h (2 Bft) 97,87 %
27.07.2018 10:56 30,9 C 38,9 C 27,8 C 47 % 1010,7 hPa 0,0 l/m 2 min 0 min 631 W/m 11,3 km/h (2 Bft) 100,00 %
27.07.2018 10:58 31,1 C 39,4 C 27,8 C 47 % 1010,7 hPa 0,0 l/m 2 min 0 min 636 W/m 6,8 km/h (2 Bft) 97,83 %
27.07.2018 11:00 31,3 C 40,0 C 27,8 C 47 % 1010,6 hPa 0,0 l/m 2 min 0 min 639 W/m 11,3 km/h (2 Bft) 100,00 %
27.07.2018 11:02 31,5 C 41,1 C 27,8 C 49 % 1010,6 hPa 0,0 l/m 2 min 0 min 643 W/m 4,5 km/h (1 Bft) 100,00 %
27.07.2018 11:04 31,6 C 40,0 C 27,8 C 45 % 1010,6 hPa 0,0 l/m 2 min 0 min 645 W/m 11,3 km/h (2 Bft) 97,87 %
27.07.2018 11:06 31,8 C 40,0 C 27,8 C 46 % 1010,6 hPa 0,0 l/m 2 min 0 min 647 W/m 6,8 km/h (2 Bft) 97,87 %
27.07.2018 11:08 32,0 C 40,0 C 27,8 C 47 % 1010,6 hPa 0,0 l/m 2 min 0 min 652 W/m 9,0 km/h (2 Bft) 97,87 %
27.07.2018 11:10 32,2 C 40,6 C 27,8 C 46 % 1010,6 hPa 0,0 l/m 2 min 0 min 661 W/m 9,0 km/h (2 Bft) 95,65 %
27.07.2018 11:12 32,3 C 40,0 C 27,8 C 45 % 1010,6 hPa 0,0 l/m 2 min 0 min 663 W/m 13,5 km/h (3 Bft) 95,74 %
27.07.2018 11:14 32,5 C 40,0 C 27,8 C 44 % 1010,5 hPa 0,0 l/m 2 min 0 min 667 W/m 13,5 km/h (3 Bft) 93,62 %
27.07.2018 11:16 32,7 C 40,6 C 27,8 C 44 % 1010,6 hPa 0,0 l/m 2 min 0 min 672 W/m 9,0 km/h (2 Bft) 93,62 %
27.07.2018 11:18 32,8 C 40,0 C 28,3 C 42 % 1010,6 hPa 0,0 l/m 2 min 0 min 677 W/m 13,5 km/h (3 Bft) 95,74 %
27.07.2018 11:20 33,0 C 38,9 C 28,3 C 42 % 1010,5 hPa 0,0 l/m 2 min 0 min 680 W/m 11,3 km/h (2 Bft) 95,74 %
27.07.2018 11:22 33,2 C 39,4 C 28,9 C 41 % 1010,5 hPa 0,0 l/m 2 min 0 min 681 W/m 11,3 km/h (2 Bft) 89,36 %
27.07.2018 11:24 33,4 C 40,0 C 28,9 C 42 % 1010,5 hPa 0,0 l/m 2 min 0 min 686 W/m 6,8 km/h (2 Bft) 93,62 %
27.07.2018 11:26 33,5 C 40,6 C 28,9 C 42 % 1010,5 hPa 0,0 l/m 2 min 0 min 689 W/m 9,0 km/h (2 Bft) 95,74 %
27.07.2018 11:28 33,7 C 40,6 C 28,9 C 41 % 1010,5 hPa 0,0 l/m 2 min 0 min 692 W/m 11,3 km/h (2 Bft) 93,62 %
27.07.2018 11:30 33,8 C 40,0 C 29,4 C 41 % 1010,5 hPa 0,0 l/m 2 min 0 min 693 W/m 15,8 km/h (3 Bft) 93,62 %
27.07.2018 11:32 33,9 C 40,0 C 29,4 C 40 % 1010,4 hPa 0,0 l/m 2 min 0 min 695 W/m 11,3 km/h (2 Bft) 93,48 %
27.07.2018 11:34 34,1 C 39,4 C 29,4 C 40 % 1010,5 hPa 0,0 l/m 2 min 0 min 688 W/m 13,5 km/h (3 Bft) 91,49 %
27.07.2018 11:36 34,2 C 38,9 C 29,4 C 39 % 1010,5 hPa 0,0 l/m 2 min 0 min 660 W/m 11,3 km/h (2 Bft) 93,62 %
27.07.2018 11:38 34,3 C 39,4 C 28,9 C 40 % 1010,5 hPa 0,0 l/m 2 min 0 min 684 W/m 9,0 km/h (2 Bft) 91,49 %
27.07.2018 11:40 34,4 C 40,0 C 28,9 C 40 % 1010,4 hPa 0,0 l/m 2 min 0 min 698 W/m 11,3 km/h (2 Bft) 93,62 %
27.07.2018 11:42 34,4 C 40,0 C 29,4 C 40 % 1010,4 hPa 0,0 l/m 2 min 0 min 714 W/m 6,8 km/h (2 Bft) 93,62 %
27.07.2018 11:44 34,5 C 40,6 C 29,4 C 40 % 1010,4 hPa 0,0 l/m 2 min 0 min 721 W/m 13,5 km/h (3 Bft) 93,62 %
27.07.2018 11:46 34,6 C 41,1 C 29,4 C 40 % 1010,4 hPa 0,0 l/m 2 min 0 min 715 W/m 13,5 km/h (3 Bft) 93,48 %
27.07.2018 11:48 34,7 C 40,6 C 30,0 C 40 % 1010,3 hPa 0,0 l/m 2 min 0 min 717 W/m 9,0 km/h (2 Bft) 93,62 %
27.07.2018 11:50 34,8 C 41,7 C 29,4 C 40 % 1010,3 hPa 0,0 l/m 2 min 0 min 721 W/m 6,8 km/h (2 Bft) 93,62 %
27.07.2018 11:52 34,8 C 41,1 C 29,4 C 39 % 1010,3 hPa 0,0 l/m 2 min 0 min 727 W/m 11,3 km/h (2 Bft) 93,62 %
27.07.2018 11:54 34,9 C 41,1 C 30,0 C 40 % 1010,3 hPa 0,0 l/m 2 min 0 min 741 W/m 11,3 km/h (2 Bft) 92,45 %
27.07.2018 11:56 35,0 C 40,0 C 30,6 C 39 % 1010,3 hPa 0,0 l/m 2 min 0 min 733 W/m 11,3 km/h (2 Bft) 93,48 %
27.07.2018 11:58 35,0 C 40,0 C 30,6 C 39 % 1010,3 hPa 0,0 l/m 2 min 0 min 717 W/m 13,5 km/h (3 Bft) 93,62 %
27.07.2018 12:00 35,1 C 40,0 C 30,6 C 39 % 1010,3 hPa 0,0 l/m 2 min 0 min 722 W/m 13,5 km/h (3 Bft) 93,62 %
27.07.2018 12:02 35,2 C 41,1 C 30,6 C 41 % 1010,2 hPa 0,0 l/m 2 min 0 min 724 W/m 6,8 km/h (2 Bft) 95,74 %
27.07.2018 12:04 35,2 C 40,6 C 30,6 C 39 % 1010,3 hPa 0,0 l/m 2 min 0 min 720 W/m 11,3 km/h (2 Bft) 95,74 %
27.07.2018 12:08 35,3 C 41,7 C 30,0 C 40 % 1010,2 hPa 0,0 l/m 4 min 0 min 746 W/m 11,3 km/h (2 Bft) 95,74 %
27.07.2018 12:10 35,4 C 40,6 C 30,0 C 38 % 1010,2 hPa 0,0 l/m 2 min 0 min 752 W/m 11,3 km/h (2 Bft) 95,74 %
27.07.2018 12:12 35,4 C 41,7 C 30,0 C 40 % 1010,2 hPa 0,0 l/m 2 min 0 min 757 W/m 9,0 km/h (2 Bft) 95,74 %
27.07.2018 12:14 35,6 C 42,8 C 30,0 C 41 % 1010,2 hPa 0,0 l/m 2 min 0 min 767 W/m 6,8 km/h (2 Bft) 97,87 %
27.07.2018 12:16 35,6 C 41,7 C 30,6 C 39 % 1010,1 hPa 0,0 l/m 2 min 0 min 765 W/m 11,3 km/h (2 Bft) 93,62 %
27.07.2018 12:18 35,7 C 41,7 C 30,6 C 40 % 1010,1 hPa 0,0 l/m 2 min 0 min 758 W/m 9,0 km/h (2 Bft) 97,87 %
27.07.2018 12:20 35,7 C 41,7 C 31,1 C 38 % 1010,1 hPa 0,0 l/m 2 min 0 min 744 W/m 6,8 km/h (2 Bft) 97,83 %
27.07.2018 12:22 35,8 C 42,2 C 31,1 C 39 % 1010,1 hPa 0,0 l/m 2 min 0 min 730 W/m 6,8 km/h (2 Bft) 97,87 %
27.07.2018 12:24 35,8 C 40,6 C 31,7 C 37 % 1010,0 hPa 0,0 l/m 2 min 0 min 781 W/m 18,0 km/h (3 Bft) 97,37 %
27.07.2018 12:26 35,9 C 41,7 C 31,1 C 38 % 1010,0 hPa 0,0 l/m 2 min 0 min 777 W/m 11,3 km/h (2 Bft) 95,74 %
27.07.2018 12:28 35,9 C 41,7 C 31,1 C 37 % 1010,0 hPa 0,0 l/m 2 min 0 min 666 W/m 11,3 km/h (2 Bft) 97,87 %
27.07.2018 12:30 36,0 C 42,8 C 30,6 C 37 % 1010,0 hPa 0,0 l/m 2 min 0 min 666 W/m 11,3 km/h (2 Bft) 97,87 %
27.07.2018 12:32 36,0 C 42,8 C 31,1 C 36 % 1009,9 hPa 0,0 l/m 2 min 0 min 666 W/m 9,0 km/h (2 Bft) 97,87 %
27.07.2018 12:34 36,1 C 42,8 C 31,1 C 35 % 1010,0 hPa 0,0 l/m 2 min 0 min 666 W/m 9,0 km/h (2 Bft) 97,83 %
27.07.2018 12:36 36,1 C 42,2 C 31,1 C 35 % 1009,9 hPa 0,0 l/m 2 min 0 min 666 W/m 11,3 km/h (2 Bft) 95,83 %
27.07.2018 12:38 36,1 C 41,7 C 31,1 C 34 % 1009,9 hPa 0,0 l/m 2 min 0 min 666 W/m 9,0 km/h (2 Bft) 97,87 %
27.07.2018 12:40 36,1 C 41,1 C 31,7 C 35 % 1009,8 hPa 0,0 l/m 2 min 0 min 666 W/m 18,0 km/h (3 Bft) 97,87 %
27.07.2018 12:42 36,2 C 41,1 C 31,7 C 34 % 1009,9 hPa 0,0 l/m 2 min 0 min 666 W/m 13,5 km/h (3 Bft) 100,00 %
27.07.2018 12:44 36,2 C 41,1 C 31,7 C 35 % 1009,9 hPa 0,0 l/m 2 min 0 min 666 W/m 18,0 km/h (3 Bft) 100,00 %
27.07.2018 12:46 36,2 C 41,7 C 31,1 C 37 % 1009,9 hPa 0,0 l/m 2 min 0 min 666 W/m 13,5 km/h (3 Bft) 100,00 %
27.07.2018 12:48 36,2 C 41,7 C 31,1 C 34 % 1009,9 hPa 0,0 l/m 2 min 0 min 666 W/m 9,0 km/h (2 Bft) 100,00 %
27.07.2018 12:50 36,3 C 40,6 C 31,7 C 34 % 1009,9 hPa 0,0 l/m 2 min 0 min 666 W/m 11,3 km/h (2 Bft) 97,87 %
27.07.2018 12:52 36,3 C 40,0 C 31,1 C 34 % 1009,8 hPa 0,0 l/m 2 min 0 min 666 W/m 13,5 km/h (3 Bft) 97,87 %
27.07.2018 12:54 36,3 C 41,1 C 31,1 C 35 % 1009,8 hPa 0,0 l/m 2 min 0 min 455 W/m 13,5 km/h (3 Bft) 100,00 %
27.07.2018 12:56 36,3 C 41,1 C 31,1 C 35 % 1009,8 hPa 0,0 l/m 2 min 0 min 785 W/m 9,0 km/h (2 Bft) 100,00 %
27.07.2018 12:58 36,4 C 41,7 C 31,1 C 35 % 1009,8 hPa 0,0 l/m 2 min 0 min 807 W/m 11,3 km/h (2 Bft) 100,00 %
27.07.2018 13:00 36,3 C 43,3 C 31,1 C 36 % 1009,7 hPa 0,0 l/m 2 min 0 min 817 W/m 4,5 km/h (1 Bft) 97,87 %
27.07.2018 13:02 36,4 C 43,3 C 31,1 C 37 % 1009,7 hPa 0,0 l/m 2 min 0 min 816 W/m 6,8 km/h (2 Bft) 97,87 %
27.07.2018 13:04 36,4 C 42,8 C 31,1 C 36 % 1009,7 hPa 0,0 l/m 2 min 0 min 823 W/m 18,0 km/h (3 Bft) 100,00 %
27.07.2018 13:06 36,4 C 41,7 C 31,7 C 34 % 1009,7 hPa 0,0 l/m 2 min 0 min 830 W/m 11,3 km/h (2 Bft) 100,00 %
27.07.2018 13:09 36,4 C 42,8 C 31,7 C 37 % 1009,5 hPa 0,0 l/m 3 min 0 min 831 W/m 11,3 km/h (2 Bft) 97,14 %
27.07.2018 13:10 36,4 C 42,8 C 31,7 C 36 % 1009,5 hPa 0,0 l/m 1 min 0 min 834 W/m 9,0 km/h (2 Bft) 100,00 %
27.07.2018 13:14 36,4 C 41,7 C 32,2 C 35 % 1009,5 hPa 0,0 l/m 4 min 0 min 834 W/m 13,5 km/h (3 Bft) 95,74 %
27.07.2018 13:16 36,4 C 42,2 C 31,7 C 36 % 1009,5 hPa 0,0 l/m 2 min 0 min 840 W/m 6,8 km/h (2 Bft) 100,00 %
27.07.2018 13:18 36,4 C 42,8 C 31,7 C 35 % 1009,4 hPa 0,0 l/m 2 min 0 min 837 W/m 9,0 km/h (2 Bft) 97,87 %
27.07.2018 13:20 36,4 C 42,2 C 32,2 C 34 % 1009,4 hPa 0,0 l/m 2 min 0 min 837 W/m 11,3 km/h (2 Bft) 97,83 %
27.07.2018 13:22 36,5 C 41,7 C 32,2 C 34 % 1009,5 hPa 0,0 l/m 2 min 0 min 836 W/m 15,8 km/h (3 Bft) 97,87 %
27.07.2018 13:24 36,5 C 41,7 C 32,2 C 35 % 1009,4 hPa 0,0 l/m 2 min 0 min 835 W/m 6,8 km/h (2 Bft) 97,87 %
27.07.2018 13:26 36,5 C 42,2 C 32,2 C 36 % 1009,4 hPa 0,0 l/m 2 min 0 min 841 W/m 9,0 km/h (2 Bft) 95,74 %
27.07.2018 13:28 36,5 C 42,8 C 31,7 C 36 % 1009,5 hPa 0,0 l/m 2 min 0 min 838 W/m 6,8 km/h (2 Bft) 97,87 %
27.07.2018 13:30 36,4 C 42,2 C 32,2 C 35 % 1009,4 hPa 0,0 l/m 2 min 0 min 839 W/m 6,8 km/h (2 Bft) 97,87 %
27.07.2018 13:32 36,4 C 42,8 C 32,2 C 36 % 1009,3 hPa 0,0 l/m 2 min 0 min 835 W/m 4,5 km/h (1 Bft) 97,83 %
27.07.2018 13:34 36,4 C 41,1 C 32,2 C 35 % 1009,3 hPa 0,0 l/m 2 min 0 min 833 W/m 15,8 km/h (3 Bft) 97,87 %
27.07.2018 13:36 36,4 C 40,0 C 32,2 C 34 % 1009,4 hPa 0,0 l/m 2 min 0 min 831 W/m 15,8 km/h (3 Bft) 97,87 %
27.07.2018 13:38 36,4 C 38,9 C 32,2 C 33 % 1009,3 hPa 0,0 l/m 2 min 0 min 836 W/m 15,8 km/h (3 Bft) 97,87 %
27.07.2018 13:40 36,3 C 37,8 C 32,2 C 34 % 1009,3 hPa 0,0 l/m 2 min 0 min 842 W/m 6,8 km/h (2 Bft) 97,87 %
27.07.2018 13:42 36,3 C 36,7 C 32,2 C 34 % 1009,2 hPa 0,0 l/m 2 min 0 min 845 W/m 6,8 km/h (2 Bft) 97,87 %
27.07.2018 13:44 36,3 C 36,1 C 32,2 C 34 % 1009,3 hPa 0,0 l/m 2 min 0 min 852 W/m 4,5 km/h (1 Bft) 97,83 %
27.07.2018 13:46 36,3 C 35,6 C 32,8 C 35 % 1009,2 hPa 0,0 l/m 2 min 0 min 853 W/m 9,0 km/h (2 Bft) 97,87 %
27.07.2018 13:50 36,2 C 35,6 C 32,8 C 34 % 1009,3 hPa 0,0 l/m 4 min 0 min 854 W/m 6,8 km/h (2 Bft) 91,67 %
27.07.2018 13:52 36,2 C 35,0 C 32,8 C 35 % 1009,2 hPa 0,0 l/m 2 min 0 min 851 W/m 6,8 km/h (2 Bft) 100,00 %
27.07.2018 13:54 36,2 C 35,0 C 32,8 C 35 % 1009,1 hPa 0,0 l/m 2 min 0 min 843 W/m 11,3 km/h (2 Bft) 97,62 %
27.07.2018 13:56 36,2 C 35,6 C 32,8 C 35 % 1009,1 hPa 0,0 l/m 2 min 0 min 848 W/m 6,8 km/h (2 Bft) 100,00 %
27.07.2018 14:01 36,1 C 35,0 C 32,8 C 33 % 1009,0 hPa 0,0 l/m 5 min 0 min 829 W/m 9,0 km/h (2 Bft) 95,56 %
27.07.2018 14:02 36,1 C 35,0 C 32,8 C 35 % 1009,0 hPa 0,0 l/m 1 min 0 min 809 W/m 4,5 km/h (1 Bft) 100,00 %
27.07.2018 14:04 36,1 C 35,0 C 32,8 C 35 % 1009,0 hPa 0,0 l/m 2 min 0 min 812 W/m 4,5 km/h (1 Bft) 100,00 %
27.07.2018 14:06 36,1 C 35,0 C 32,8 C 36 % 1008,9 hPa 0,0 l/m 2 min 0 min 810 W/m 6,8 km/h (2 Bft) 100,00 %
27.07.2018 14:08 36,0 C 35,0 C 32,8 C 36 % 1008,9 hPa 0,0 l/m 2 min 0 min 818 W/m 6,8 km/h (2 Bft) 97,87 %
27.07.2018 14:10 36,0 C 35,0 C 32,8 C 35 % 1008,9 hPa 0,0 l/m 2 min 0 min 830 W/m 6,8 km/h (2 Bft) 100,00 %
27.07.2018 14:12 36,0 C 35,0 C 32,2 C 35 % 1008,9 hPa 0,0 l/m 2 min 0 min 841 W/m 6,8 km/h (2 Bft) 100,00 %
27.07.2018 14:14 35,9 C 35,0 C 32,2 C 35 % 1008,8 hPa 0,0 l/m 2 min 0 min 830 W/m 9,0 km/h (2 Bft) 95,74 %
27.07.2018 14:16 35,9 C 35,0 C 32,2 C 35 % 1008,8 hPa 0,0 l/m 2 min 0 min 838 W/m 6,8 km/h (2 Bft) 97,87 %
27.07.2018 14:18 35,9 C 35,0 C 32,2 C 34 % 1008,8 hPa 0,0 l/m 2 min 0 min 841 W/m 6,8 km/h (2 Bft) 97,87 %
27.07.2018 14:20 35,8 C 35,0 C 32,2 C 34 % 1008,7 hPa 0,0 l/m 2 min 0 min 832 W/m 11,3 km/h (2 Bft) 97,87 %
27.07.2018 14:22 35,8 C 35,0 C 32,2 C 35 % 1008,7 hPa 0,0 l/m 2 min 0 min 824 W/m 9,0 km/h (2 Bft) 97,87 %
27.07.2018 14:24 35,8 C 35,0 C 32,2 C 35 % 1008,7 hPa 0,0 l/m 2 min 0 min 818 W/m 9,0 km/h (2 Bft) 97,83 %
27.07.2018 14:26 35,8 C 35,0 C 32,8 C 36 % 1008,6 hPa 0,0 l/m 2 min 0 min 828 W/m 11,3 km/h (2 Bft) 97,87 %
27.07.2018 14:28 35,7 C 35,0 C 32,8 C 34 % 1008,7 hPa 0,0 l/m 2 min 0 min 833 W/m 15,8 km/h (3 Bft) 93,62 %
27.07.2018 14:30 35,7 C 35,0 C 32,2 C 33 % 1008,7 hPa 0,0 l/m 2 min 0 min 843 W/m 13,5 km/h (3 Bft) 97,87 %
27.07.2018 14:32 35,7 C 35,0 C 32,2 C 34 % 1008,7 hPa 0,0 l/m 2 min 0 min 852 W/m 11,3 km/h (2 Bft) 95,74 %
27.07.2018 14:34 35,7 C 35,0 C 32,2 C 36 % 1008,6 hPa 0,0 l/m 2 min 0 min 858 W/m 6,8 km/h (2 Bft) 97,87 %
27.07.2018 14:36 35,6 C 35,0 C 32,2 C 35 % 1008,6 hPa 0,0 l/m 2 min 0 min 854 W/m 9,0 km/h (2 Bft) 97,83 %
27.07.2018 14:38 35,6 C 35,6 C 32,2 C 36 % 1008,6 hPa 0,0 l/m 2 min 0 min 852 W/m 6,8 km/h (2 Bft) 100,00 %
27.07.2018 14:40 35,6 C 35,6 C 32,2 C 34 % 1008,6 hPa 0,0 l/m 2 min 0 min 848 W/m 18,0 km/h (3 Bft) 95,74 %
27.07.2018 14:42 35,6 C 35,0 C 32,2 C 35 % 1008,6 hPa 0,0 l/m 2 min 0 min 836 W/m 11,3 km/h (2 Bft) 100,00 %
27.07.2018 14:44 35,6 C 35,0 C 32,8 C 33 % 1008,6 hPa 0,0 l/m 2 min 0 min 835 W/m 9,0 km/h (2 Bft) 100,00 %
27.07.2018 14:46 35,6 C 35,6 C 32,8 C 33 % 1008,6 hPa 0,0 l/m 2 min 0 min 840 W/m 11,3 km/h (2 Bft) 100,00 %
27.07.2018 14:48 35,6 C 35,0 C 32,8 C 35 % 1008,6 hPa 0,0 l/m 2 min 0 min 838 W/m 11,3 km/h (2 Bft) 100,00 %
27.07.2018 14:50 35,6 C 35,6 C 32,8 C 34 % 1008,4 hPa 0,0 l/m 2 min 0 min 837 W/m 6,8 km/h (2 Bft) 97,87 %
27.07.2018 14:52 35,6 C 35,6 C 32,8 C 35 % 1008,5 hPa 0,0 l/m 2 min 0 min 840 W/m 9,0 km/h (2 Bft) 100,00 %
27.07.2018 14:54 35,6 C 34,4 C 31,7 C 36 % 1008,5 hPa 0,0 l/m 2 min 0 min 844 W/m 4,5 km/h (1 Bft) 100,00 %
27.07.2018 14:56 35,7 C 27,8 C 26,7 C 39 % 1008,4 hPa 0,0 l/m 2 min 0 min 842 W/m 6,8 km/h (2 Bft) 100,00 %
27.07.2018 14:58 35,7 C 23,9 C 23,9 C 42 % 1008,4 hPa 0,0 l/m 2 min 0 min 841 W/m 9,0 km/h (2 Bft) 95,65 %
27.07.2018 15:00 35,6 C 21,7 C 22,8 C 43 % 1008,3 hPa 0,0 l/m 2 min 0 min 841 W/m 13,5 km/h (3 Bft) 100,00 %
27.07.2018 15:02 35,4 C 21,1 C 21,7 C 42 % 1008,4 hPa 0,0 l/m 2 min 0 min 837 W/m 13,5 km/h (3 Bft) 100,00 %
27.07.2018 15:04 35,2 C 21,1 C 21,1 C 46 % 1008,4 hPa 0,0 l/m 2 min 0 min 836 W/m 11,3 km/h (2 Bft) 100,00 %
27.07.2018 15:06 35,0 C 21,1 C 20,6 C 44 % 1008,3 hPa 0,0 l/m 2 min 0 min 839 W/m 11,3 km/h (2 Bft) 97,87 %
27.07.2018 15:08 34,7 C 20,6 C 20,0 C 43 % 1008,3 hPa 0,0 l/m 2 min 0 min 835 W/m 13,5 km/h (3 Bft) 97,87 %
27.07.2018 15:10 34,3 C 21,1 C 20,0 C 46 % 1008,4 hPa 0,0 l/m 2 min 0 min 832 W/m 11,3 km/h (2 Bft) 100,00 %
27.07.2018 15:12 34,0 C 20,6 C 20,0 C 45 % 1008,3 hPa 0,0 l/m 2 min 0 min 829 W/m 11,3 km/h (2 Bft) 93,62 %
27.07.2018 15:14 33,7 C 21,1 C 20,0 C 46 % 1008,2 hPa 0,0 l/m 2 min 0 min 821 W/m 9,0 km/h (2 Bft) 97,87 %
27.07.2018 15:16 33,4 C 21,1 C 19,4 C 47 % 1008,2 hPa 0,0 l/m 2 min 0 min 818 W/m 15,8 km/h (3 Bft) 95,74 %
27.07.2018 15:18 33,0 C 20,6 C 19,4 C 46 % 1008,1 hPa 0,0 l/m 2 min 0 min 816 W/m 11,3 km/h (2 Bft) 97,87 %
27.07.2018 15:20 32,7 C 21,1 C 20,0 C 48 % 1008,2 hPa 0,0 l/m 2 min 0 min 818 W/m 9,0 km/h (2 Bft) 97,87 %
27.07.2018 15:22 32,4 C 20,6 C 19,4 C 49 % 1008,1 hPa 0,0 l/m 2 min 0 min 811 W/m 6,8 km/h (2 Bft) 91,30 %
27.07.2018 15:24 32,2 C 21,1 C 20,6 C 50 % 1008,1 hPa 0,0 l/m 2 min 0 min 810 W/m 9,0 km/h (2 Bft) 95,74 %
27.07.2018 15:26 31,9 C 21,1 C 21,1 C 47 % 1008,1 hPa 0,0 l/m 2 min 0 min 813 W/m 9,0 km/h (2 Bft) 97,87 %
27.07.2018 15:28 31,7 C 21,7 C 21,7 C 47 % 1008,1 hPa 0,0 l/m 2 min 0 min 805 W/m 6,8 km/h (2 Bft) 97,87 %
27.07.2018 15:30 31,4 C 22,8 C 22,8 C 48 % 1008,0 hPa 0,0 l/m 2 min 0 min 801 W/m 9,0 km/h (2 Bft) 97,87 %
27.07.2018 15:32 31,2 C 23,3 C 23,3 C 44 % 1008,1 hPa 0,0 l/m 2 min 0 min 800 W/m 15,8 km/h (3 Bft) 98,11 %
27.07.2018 15:34 31,1 C 23,9 C 23,9 C 45 % 1008,0 hPa 0,0 l/m 2 min 0 min 799 W/m 15,8 km/h (3 Bft) 97,83 %
27.07.2018 15:36 30,9 C 24,4 C 24,4 C 44 % 1008,0 hPa 0,0 l/m 2 min 0 min 798 W/m 11,3 km/h (2 Bft) 97,92 %
27.07.2018 15:38 30,9 C 25,0 C 24,4 C 42 % 1008,0 hPa 0,0 l/m 2 min 0 min 797 W/m 11,3 km/h (2 Bft) 97,87 %
27.07.2018 15:40 31,1 C 25,6 C 25,0 C 48 % 1008,0 hPa 0,0 l/m 2 min 0 min 796 W/m 6,8 km/h (2 Bft) 97,87 %
27.07.2018 15:42 31,1 C 25,0 C 25,6 C 46 % 1008,0 hPa 0,0 l/m 2 min 0 min 797 W/m 6,8 km/h (2 Bft) 97,87 %
27.07.2018 15:44 31,1 C 25,6 C 26,1 C 43 % 1007,8 hPa 0,0 l/m 2 min 0 min 788 W/m 9,0 km/h (2 Bft) 97,87 %
27.07.2018 15:46 31,2 C 25,6 C 27,8 C 42 % 1007,9 hPa 0,0 l/m 2 min 0 min 785 W/m 11,3 km/h (2 Bft) 97,83 %
27.07.2018 15:48 31,3 C 26,7 C 29,4 C 42 % 1007,7 hPa 0,0 l/m 2 min 0 min 779 W/m 4,5 km/h (1 Bft) 97,87 %
27.07.2018 15:50 31,4 C 27,8 C 30,0 C 42 % 1007,8 hPa 0,0 l/m 2 min 0 min 773 W/m 4,5 km/h (1 Bft) 97,87 %
27.07.2018 15:52 31,6 C 31,1 C 30,6 C 43 % 1007,8 hPa 0,0 l/m 2 min 0 min 769 W/m 6,8 km/h (2 Bft) 97,87 %
27.07.2018 15:54 31,7 C 33,3 C 31,1 C 40 % 1007,7 hPa 0,0 l/m 2 min 0 min 765 W/m 9,0 km/h (2 Bft) 95,74 %
27.07.2018 15:56 31,9 C 35,0 C 31,1 C 42 % 1007,8 hPa 0,0 l/m 2 min 0 min 756 W/m 9,0 km/h (2 Bft) 97,87 %
27.07.2018 15:58 32,0 C 35,6 C 31,1 C 39 % 1007,7 hPa 0,0 l/m 2 min 0 min 765 W/m 11,3 km/h (2 Bft) 97,83 %
27.07.2018 16:00 32,2 C 36,7 C 31,1 C 39 % 1007,7 hPa 0,0 l/m 2 min 0 min 763 W/m 13,5 km/h (3 Bft) 100,00 %
27.07.2018 16:02 32,4 C 38,3 C 31,1 C 39 % 1007,8 hPa 4,2 l/m 2 min 0 min 758 W/m 6,8 km/h (2 Bft) 97,78 %
27.07.2018 16:04 32,6 C 38,9 C 31,7 C 38 % 1007,7 hPa 0,0 l/m 2 min 0 min 748 W/m 9,0 km/h (2 Bft) 97,87 %
27.07.2018 16:06 32,8 C 38,9 C 31,7 C 36 % 1007,7 hPa 0,0 l/m 2 min 0 min 749 W/m 13,5 km/h (3 Bft) 100,00 %
27.07.2018 16:08 33,0 C 38,9 C 31,7 C 36 % 1007,6 hPa 0,0 l/m 2 min 0 min 744 W/m 11,3 km/h (2 Bft) 100,00 %
27.07.2018 16:10 33,2 C 38,9 C 31,7 C 35 % 1007,6 hPa 0,0 l/m 2 min 0 min 733 W/m 9,0 km/h (2 Bft) 100,00 %
27.07.2018 16:12 33,4 C 38,9 C 31,7 C 37 % 1007,5 hPa 0,0 l/m 2 min 0 min 716 W/m 6,8 km/h (2 Bft) 100,00 %
27.07.2018 16:14 33,6 C 40,0 C 31,7 C 37 % 1007,5 hPa 0,0 l/m 2 min 0 min 720 W/m 4,5 km/h (1 Bft) 95,74 %
27.07.2018 16:16 33,7 C 40,0 C 31,7 C 36 % 1007,5 hPa 0,0 l/m 2 min 0 min 696 W/m 2,3 km/h (1 Bft) 97,87 %
27.07.2018 16:18 33,8 C 40,0 C 31,7 C 36 % 1007,5 hPa 0,0 l/m 2 min 0 min 724 W/m 9,0 km/h (2 Bft) 100,00 %
27.07.2018 16:20 33,9 C 40,0 C 31,7 C 37 % 1007,4 hPa 0,0 l/m 2 min 0 min 735 W/m 9,0 km/h (2 Bft) 100,00 %
27.07.2018 16:22 34,1 C 38,9 C 31,7 C 35 % 1007,4 hPa 0,0 l/m 2 min 0 min 747 W/m 11,3 km/h (2 Bft) 100,00 %
27.07.2018 16:24 34,3 C 38,9 C 31,7 C 35 % 1007,4 hPa 0,0 l/m 2 min 0 min 743 W/m 9,0 km/h (2 Bft) 97,14 %
27.07.2018 16:26 34,4 C 39,4 C 32,2 C 36 % 1007,5 hPa 0,0 l/m 2 min 0 min 743 W/m 6,8 km/h (2 Bft) 97,96 %
27.07.2018 16:28 34,5 C 40,0 C 32,2 C 35 % 1007,4 hPa 0,0 l/m 2 min 0 min 745 W/m 4,5 km/h (1 Bft) 97,92 %
27.07.2018 16:30 34,6 C 40,0 C 32,2 C 36 % 1007,3 hPa 0,0 l/m 2 min 0 min 738 W/m 6,8 km/h (2 Bft) 97,92 %
27.07.2018 16:32 34,7 C 40,6 C 32,2 C 36 % 1007,3 hPa 0,0 l/m 2 min 0 min 737 W/m 6,8 km/h (2 Bft) 97,87 %
27.07.2018 16:34 34,8 C 40,0 C 32,2 C 35 % 1007,3 hPa 0,0 l/m 2 min 0 min 731 W/m 9,0 km/h (2 Bft) 93,62 %
27.07.2018 16:36 34,9 C 40,0 C 32,2 C 35 % 1007,2 hPa 0,0 l/m 2 min 0 min 722 W/m 4,5 km/h (1 Bft) 97,83 %
27.07.2018 16:38 35,0 C 40,0 C 32,2 C 36 % 1007,2 hPa 0,0 l/m 2 min 0 min 710 W/m 6,8 km/h (2 Bft) 97,62 %
27.07.2018 16:40 35,1 C 40,0 C 32,2 C 36 % 1007,3 hPa 0,0 l/m 2 min 0 min 701 W/m 9,0 km/h (2 Bft) 97,92 %
27.07.2018 16:42 35,2 C 40,0 C 32,2 C 35 % 1007,2 hPa 0,0 l/m 2 min 0 min 681 W/m 6,8 km/h (2 Bft) 97,87 %
27.07.2018 16:44 35,2 C 40,0 C 32,2 C 36 % 1007,2 hPa 0,0 l/m 2 min 0 min 654 W/m 4,5 km/h (1 Bft) 97,87 %
27.07.2018 16:46 35,3 C 39,4 C 32,2 C 34 % 1007,1 hPa 0,0 l/m 2 min 0 min 650 W/m 6,8 km/h (2 Bft) 95,83 %
27.07.2018 16:48 35,3 C 39,4 C 32,2 C 36 % 1007,0 hPa 0,0 l/m 2 min 0 min 652 W/m 6,8 km/h (2 Bft) 97,87 %
27.07.2018 16:50 35,4 C 38,9 C 32,2 C 34 % 1007,1 hPa 0,0 l/m 2 min 0 min 639 W/m 11,3 km/h (2 Bft) 97,87 %
27.07.2018 16:52 35,5 C 38,9 C 32,2 C 34 % 1007,0 hPa 0,0 l/m 2 min 0 min 625 W/m 13,5 km/h (3 Bft) 95,74 %
27.07.2018 16:54 35,6 C 38,9 C 32,2 C 35 % 1007,0 hPa 0,0 l/m 2 min 0 min 582 W/m 6,8 km/h (2 Bft) 97,92 %
27.07.2018 16:56 35,6 C 38,9 C 32,2 C 35 % 1007,1 hPa 0,0 l/m 2 min 0 min 616 W/m 9,0 km/h (2 Bft) 97,87 %
27.07.2018 16:58 35,7 C 38,3 C 32,2 C 34 % 1007,0 hPa 0,0 l/m 2 min 0 min 594 W/m 6,8 km/h (2 Bft) 97,96 %
27.07.2018 17:00 35,7 C 37,8 C 32,2 C 34 % 1006,9 hPa 0,0 l/m 2 min 0 min 625 W/m 18,0 km/h (3 Bft) 97,83 %
27.07.2018 17:02 35,8 C 37,8 C 32,2 C 34 % 1006,9 hPa 0,0 l/m 2 min 0 min 626 W/m 13,5 km/h (3 Bft) 97,62 %
27.07.2018 17:04 35,8 C 37,8 C 32,2 C 35 % 1007,0 hPa 0,0 l/m 2 min 0 min 608 W/m 9,0 km/h (2 Bft) 95,74 %
27.07.2018 17:06 35,8 C 37,8 C 32,2 C 33 % 1006,9 hPa 0,0 l/m 2 min 0 min 623 W/m 13,5 km/h (3 Bft) 98,11 %
27.07.2018 17:08 35,9 C 37,8 C 32,2 C 33 % 1006,8 hPa 0,0 l/m 2 min 0 min 637 W/m 6,8 km/h (2 Bft) 97,56 %
27.07.2018 17:10 35,9 C 37,8 C 32,2 C 33 % 1006,8 hPa 0,0 l/m 2 min 0 min 613 W/m 9,0 km/h (2 Bft) 93,75 %
27.07.2018 17:12 35,9 C 37,8 C 32,2 C 34 % 1006,8 hPa 0,0 l/m 2 min 0 min 625 W/m 11,3 km/h (2 Bft) 97,92 %
27.07.2018 17:14 35,9 C 37,8 C 32,8 C 35 % 1006,8 hPa 0,0 l/m 2 min 0 min 613 W/m 4,5 km/h (1 Bft) 97,87 %
27.07.2018 17:16 36,0 C 37,8 C 32,2 C 34 % 1006,8 hPa 0,0 l/m 2 min 0 min 599 W/m 9,0 km/h (2 Bft) 97,92 %
27.07.2018 17:18 36,0 C 37,2 C 32,2 C 32 % 1006,8 hPa 0,0 l/m 2 min 0 min 599 W/m 15,8 km/h (3 Bft) 97,92 %
27.07.2018 17:20 36,1 C 37,2 C 32,2 C 35 % 1006,9 hPa 0,0 l/m 2 min 0 min 584 W/m 15,8 km/h (3 Bft) 97,83 %
27.07.2018 17:22 36,1 C 37,2 C 32,2 C 33 % 1006,8 hPa 0,0 l/m 2 min 0 min 572 W/m 9,0 km/h (2 Bft) 95,83 %
27.07.2018 17:24 36,1 C 36,7 C 32,8 C 32 % 1006,9 hPa 0,0 l/m 2 min 0 min 529 W/m 9,0 km/h (2 Bft) 95,74 %
27.07.2018 17:26 36,1 C 36,1 C 32,8 C 34 % 1006,8 hPa 0,0 l/m 2 min 0 min 518 W/m 9,0 km/h (2 Bft) 93,62 %
27.07.2018 17:28 36,1 C 36,7 C 32,8 C 33 % 1006,8 hPa 0,0 l/m 2 min 0 min 528 W/m 9,0 km/h (2 Bft) 97,87 %
27.07.2018 17:30 36,1 C 36,1 C 32,2 C 35 % 1006,8 hPa 0,0 l/m 2 min 0 min 472 W/m 6,8 km/h (2 Bft) 97,87 %
27.07.2018 17:32 36,1 C 36,1 C 32,2 C 33 % 1006,8 hPa 0,0 l/m 2 min 0 min 411 W/m 9,0 km/h (2 Bft) 97,87 %
27.07.2018 17:34 36,1 C 35,6 C 32,2 C 33 % 1006,7 hPa 0,0 l/m 2 min 0 min 465 W/m 6,8 km/h (2 Bft) 97,83 %
27.07.2018 17:36 36,1 C 35,6 C 32,2 C 33 % 1006,7 hPa 0,0 l/m 2 min 0 min 458 W/m 9,0 km/h (2 Bft) 97,62 %
27.07.2018 17:38 36,1 C 35,6 C 32,2 C 34 % 1006,6 hPa 0,0 l/m 2 min 0 min 443 W/m 6,8 km/h (2 Bft) 97,96 %
27.07.2018 17:40 36,1 C 35,6 C 32,2 C 33 % 1006,6 hPa 0,0 l/m 2 min 0 min 487 W/m 9,0 km/h (2 Bft) 97,96 %
27.07.2018 17:42 36,1 C 36,1 C 32,8 C 33 % 1006,6 hPa 0,0 l/m 2 min 0 min 553 W/m 9,0 km/h (2 Bft) 100,00 %
27.07.2018 17:44 36,1 C 36,7 C 32,8 C 34 % 1006,7 hPa 0,0 l/m 2 min 0 min 545 W/m 9,0 km/h (2 Bft) 100,00 %
27.07.2018 17:46 36,1 C 36,1 C 32,8 C 32 % 1006,7 hPa 0,0 l/m 2 min 0 min 556 W/m 11,3 km/h (2 Bft) 100,00 %
27.07.2018 17:48 36,1 C 36,1 C 32,8 C 34 % 1006,7 hPa 0,0 l/m 2 min 0 min 553 W/m 6,8 km/h (2 Bft) 97,87 %
27.07.2018 17:50 36,1 C 36,1 C 32,8 C 34 % 1006,6 hPa 0,0 l/m 2 min 0 min 546 W/m 6,8 km/h (2 Bft) 100,00 %
27.07.2018 17:52 36,1 C 36,1 C 32,8 C 32 % 1006,6 hPa 0,0 l/m 2 min 0 min 539 W/m 11,3 km/h (2 Bft) 97,87 %
27.07.2018 17:54 36,1 C 36,1 C 32,8 C 33 % 1006,7 hPa 0,0 l/m 2 min 0 min 534 W/m 9,0 km/h (2 Bft) 100,00 %
27.07.2018 17:56 36,1 C 36,1 C 32,8 C 33 % 1006,6 hPa 0,0 l/m 2 min 0 min 520 W/m 6,8 km/h (2 Bft) 100,00 %
27.07.2018 17:58 36,1 C 36,1 C 32,8 C 34 % 1006,5 hPa 0,0 l/m 2 min 0 min 505 W/m 6,8 km/h (2 Bft) 95,12 %
27.07.2018 18:00 36,1 C 36,1 C 32,8 C 35 % 1006,5 hPa 0,0 l/m 2 min 0 min 510 W/m 4,5 km/h (1 Bft) 100,00 %
27.07.2018 18:02 36,1 C 36,1 C 32,8 C 34 % 1006,5 hPa 0,0 l/m 2 min 0 min 517 W/m 4,5 km/h (1 Bft) 100,00 %
27.07.2018 18:04 36,1 C 36,1 C 32,8 C 35 % 1006,5 hPa 0,0 l/m 2 min 0 min 511 W/m 4,5 km/h (1 Bft) 100,00 %
27.07.2018 18:08 36,1 C 35,6 C 32,8 C 33 % 1006,4 hPa 0,0 l/m 4 min 0 min 510 W/m 9,0 km/h (2 Bft) 98,94 %
27.07.2018 18:10 36,1 C 36,1 C 32,8 C 33 % 1006,4 hPa 0,0 l/m 2 min 0 min 480 W/m 9,0 km/h (2 Bft) 100,00 %
27.07.2018 18:12 36,1 C 36,1 C 33,3 C 32 % 1006,3 hPa 0,0 l/m 2 min 0 min 457 W/m 9,0 km/h (2 Bft) 97,87 %
27.07.2018 18:14 36,1 C 36,1 C 33,3 C 32 % 1006,3 hPa 0,0 l/m 2 min 0 min 466 W/m 11,3 km/h (2 Bft) 100,00 %
27.07.2018 18:16 36,1 C 36,1 C 33,3 C 32 % 1006,3 hPa 0,0 l/m 2 min 0 min 479 W/m 6,8 km/h (2 Bft) 100,00 %
27.07.2018 18:18 36,1 C 35,6 C 33,3 C 31 % 1006,2 hPa 0,0 l/m 2 min 0 min 479 W/m 9,0 km/h (2 Bft) 100,00 %
27.07.2018 18:20 36,1 C 35,6 C 33,3 C 33 % 1006,3 hPa 0,0 l/m 2 min 0 min 476 W/m 9,0 km/h (2 Bft) 100,00 %
27.07.2018 18:22 36,2 C 35,6 C 33,3 C 32 % 1006,2 hPa 0,0 l/m 2 min 0 min 469 W/m 11,3 km/h (2 Bft) 100,00 %
27.07.2018 18:24 36,2 C 35,6 C 32,8 C 32 % 1006,2 hPa 0,0 l/m 2 min 0 min 462 W/m 11,3 km/h (2 Bft) 100,00 %
27.07.2018 18:26 36,2 C 35,6 C 32,8 C 31 % 1006,2 hPa 0,0 l/m 2 min 0 min 453 W/m 6,8 km/h (2 Bft) 100,00 %
27.07.2018 18:28 36,2 C 35,6 C 33,3 C 32 % 1006,2 hPa 0,0 l/m 2 min 0 min 449 W/m 9,0 km/h (2 Bft) 100,00 %
27.07.2018 18:30 36,2 C 35,6 C 32,8 C 33 % 1006,2 hPa 0,0 l/m 2 min 0 min 447 W/m 6,8 km/h (2 Bft) 100,00 %
27.07.2018 18:32 36,2 C 35,6 C 32,8 C 33 % 1006,2 hPa 0,0 l/m 2 min 0 min 443 W/m 6,8 km/h (2 Bft) 100,00 %
27.07.2018 18:34 36,2 C 35,6 C 32,8 C 31 % 1006,2 hPa 0,0 l/m 2 min 0 min 436 W/m 6,8 km/h (2 Bft) 100,00 %
27.07.2018 18:36 36,2 C 35,6 C 32,8 C 33 % 1006,1 hPa 0,0 l/m 2 min 0 min 432 W/m 2,3 km/h (1 Bft) 97,87 %
27.07.2018 18:38 36,2 C 35,6 C 32,8 C 31 % 1006,2 hPa 0,0 l/m 2 min 0 min 423 W/m 2,3 km/h (1 Bft) 97,87 %
27.07.2018 18:40 36,2 C 35,6 C 32,8 C 32 % 1006,1 hPa 0,0 l/m 2 min 0 min 421 W/m 2,3 km/h (1 Bft) 100,00 %
27.07.2018 18:42 36,2 C 35,6 C 32,2 C 34 % 1006,2 hPa 0,0 l/m 2 min 0 min 414 W/m 4,5 km/h (1 Bft) 100,00 %
27.07.2018 18:44 36,2 C 35,6 C 32,2 C 34 % 1006,1 hPa 0,0 l/m 2 min 0 min 408 W/m 4,5 km/h (1 Bft) 100,00 %
27.07.2018 18:46 36,1 C 35,6 C 32,2 C 34 % 1006,2 hPa 0,0 l/m 2 min 0 min 395 W/m 6,8 km/h (2 Bft) 100,00 %
27.07.2018 18:48 36,1 C 35,6 C 32,2 C 34 % 1006,2 hPa 0,0 l/m 2 min 0 min 384 W/m 4,5 km/h (1 Bft) 100,00 %
27.07.2018 18:50 36,1 C 35,0 C 32,2 C 33 % 1006,1 hPa 0,0 l/m 2 min 0 min 358 W/m 4,5 km/h (1 Bft) 100,00 %
27.07.2018 18:52 36,1 C 35,0 C 32,2 C 35 % 1006,1 hPa 0,0 l/m 2 min 0 min 352 W/m 4,5 km/h (1 Bft) 100,00 %
27.07.2018 18:54 36,0 C 35,0 C 32,2 C 33 % 1006,1 hPa 0,0 l/m 2 min 0 min 323 W/m 4,5 km/h (1 Bft) 100,00 %
27.07.2018 18:56 36,0 C 35,0 C 31,7 C 34 % 1006,1 hPa 0,0 l/m 2 min 0 min 310 W/m 6,8 km/h (2 Bft) 100,00 %
27.07.2018 18:58 35,9 C 35,0 C 31,7 C 34 % 1006,0 hPa 0,0 l/m 2 min 0 min 320 W/m 4,5 km/h (1 Bft) 100,00 %
27.07.2018 19:00 35,9 C 35,0 C 31,7 C 34 % 1006,1 hPa 0,0 l/m 2 min 0 min 317 W/m 9,0 km/h (2 Bft) 97,87 %
27.07.2018 19:02 35,8 C 35,0 C 31,7 C 33 % 1006,1 hPa 0,0 l/m 2 min 0 min 223 W/m 9,0 km/h (2 Bft) 100,00 %
27.07.2018 19:04 35,8 C 35,0 C 31,1 C 34 % 1006,0 hPa 0,0 l/m 0 min 0 min 93 W/m 9,0 km/h (2 Bft) 100,00 %
27.07.2018 19:06 35,8 C 35,0 C 31,1 C 31 % 1006,1 hPa 0,0 l/m 0 min 0 min 77 W/m 9,0 km/h (2 Bft) 100,00 %
27.07.2018 19:08 35,7 C 35,0 C 31,1 C 31 % 1006,1 hPa 0,0 l/m 0 min 0 min 86 W/m 9,0 km/h (2 Bft) 100,00 %
27.07.2018 19:10 35,7 C 35,0 C 31,1 C 32 % 1006,1 hPa 0,0 l/m 0 min 0 min 151 W/m 4,5 km/h (1 Bft) 100,00 %
27.07.2018 19:12 35,7 C 35,0 C 31,1 C 32 % 1006,1 hPa 0,0 l/m 2 min 0 min 280 W/m 6,8 km/h (2 Bft) 93,75 %
27.07.2018 19:14 35,7 C 35,0 C 31,1 C 34 % 1006,1 hPa 0,0 l/m 2 min 0 min 168 W/m 2,3 km/h (1 Bft) 97,83 %
27.07.2018 19:16 35,7 C 35,0 C 31,1 C 34 % 1006,1 hPa 0,0 l/m 0 min 0 min 82 W/m 4,5 km/h (1 Bft) 97,87 %
27.07.2018 19:18 35,7 C 34,4 C 30,6 C 31 % 1006,0 hPa 0,0 l/m 0 min 0 min 70 W/m 6,8 km/h (2 Bft) 100,00 %
27.07.2018 19:20 35,6 C 34,4 C 30,6 C 34 % 1006,0 hPa 0,0 l/m 0 min 0 min 69 W/m 4,5 km/h (1 Bft) 100,00 %
27.07.2018 19:22 35,6 C 34,4 C 30,6 C 32 % 1006,0 hPa 0,0 l/m 0 min 0 min 69 W/m 6,8 km/h (2 Bft) 100,00 %
27.07.2018 19:24 35,6 C 34,4 C 30,6 C 31 % 1006,0 hPa 0,0 l/m 0 min 0 min 68 W/m 6,8 km/h (2 Bft) 98,00 %
27.07.2018 19:26 35,5 C 34,4 C 30,6 C 32 % 1006,0 hPa 0,0 l/m 0 min 0 min 67 W/m 4,5 km/h (1 Bft) 100,00 %
27.07.2018 19:28 35,5 C 34,4 C 30,6 C 32 % 1005,9 hPa 0,0 l/m 0 min 0 min 66 W/m 4,5 km/h (1 Bft) 100,00 %
27.07.2018 19:30 35,4 C 33,9 C 30,6 C 32 % 1006,0 hPa 0,0 l/m 0 min 0 min 65 W/m 6,8 km/h (2 Bft) 100,00 %
27.07.2018 19:32 35,4 C 33,9 C 30,6 C 32 % 1006,0 hPa 0,0 l/m 0 min 0 min 63 W/m 6,8 km/h (2 Bft) 100,00 %
27.07.2018 19:34 35,4 C 33,9 C 30,0 C 33 % 1005,9 hPa 0,0 l/m 0 min 0 min 62 W/m 2,3 km/h (1 Bft) 100,00 %
27.07.2018 19:36 35,3 C 33,9 C 30,0 C 33 % 1005,9 hPa 0,0 l/m 0 min 0 min 59 W/m 4,5 km/h (1 Bft) 100,00 %
27.07.2018 19:38 35,3 C 33,9 C 30,0 C 33 % 1005,8 hPa 0,0 l/m 0 min 0 min 58 W/m 9,0 km/h (2 Bft) 100,00 %
27.07.2018 19:40 35,2 C 33,9 C 30,0 C 32 % 1005,9 hPa 0,0 l/m 0 min 0 min 58 W/m 6,8 km/h (2 Bft) 100,00 %
27.07.2018 19:42 35,1 C 33,9 C 30,0 C 33 % 1005,9 hPa 0,0 l/m 0 min 0 min 58 W/m 4,5 km/h (1 Bft) 100,00 %
27.07.2018 19:44 35,1 C 33,3 C 30,0 C 33 % 1005,9 hPa 0,0 l/m 0 min 0 min 57 W/m 6,8 km/h (2 Bft) 100,00 %
27.07.2018 19:46 35,0 C 33,9 C 30,0 C 32 % 1005,8 hPa 0,0 l/m 0 min 0 min 54 W/m 6,8 km/h (2 Bft) 100,00 %
27.07.2018 19:48 35,0 C 33,9 C 30,0 C 32 % 1005,8 hPa 0,0 l/m 0 min 0 min 54 W/m 6,8 km/h (2 Bft) 100,00 %
27.07.2018 19:50 34,9 C 33,3 C 30,0 C 35 % 1005,8 hPa 0,0 l/m 0 min 0 min 53 W/m 2,3 km/h (1 Bft) 97,87 %
27.07.2018 19:52 34,9 C 33,3 C 30,0 C 35 % 1005,8 hPa 0,0 l/m 0 min 0 min 52 W/m 2,3 km/h (1 Bft) 100,00 %
27.07.2018 19:54 34,9 C 32,8 C 29,4 C 38 % 1005,7 hPa 0,0 l/m 0 min 0 min 50 W/m 2,3 km/h (1 Bft) 100,00 %
27.07.2018 19:56 34,8 C 32,8 C 29,4 C 38 % 1005,7 hPa 0,0 l/m 0 min 0 min 49 W/m 4,5 km/h (1 Bft) 100,00 %
27.07.2018 19:58 34,7 C 32,2 C 29,4 C 37 % 1005,7 hPa 0,0 l/m 0 min 0 min 48 W/m 2,3 km/h (1 Bft) 97,87 %
27.07.2018 20:00 34,6 C 32,2 C 28,9 C 38 % 1005,7 hPa 0,0 l/m 0 min 0 min 47 W/m 2,3 km/h (1 Bft) 95,45 %
27.07.2018 20:02 34,6 C 32,2 C 28,9 C 35 % 1005,7 hPa 0,0 l/m 0 min 0 min 47 W/m 6,8 km/h (2 Bft) 97,83 %
27.07.2018 20:04 34,5 C 32,2 C 28,9 C 35 % 1005,7 hPa 0,0 l/m 0 min 0 min 46 W/m 4,5 km/h (1 Bft) 98,00 %
27.07.2018 20:06 34,4 C 32,2 C 28,9 C 37 % 1005,6 hPa 0,0 l/m 0 min 0 min 44 W/m 4,5 km/h (1 Bft) 95,74 %
27.07.2018 20:08 34,3 C 32,2 C 28,9 C 37 % 1005,6 hPa 0,0 l/m 0 min 0 min 44 W/m 6,8 km/h (2 Bft) 95,74 %
27.07.2018 20:10 34,2 C 32,2 C 29,4 C 36 % 1005,6 hPa 0,0 l/m 0 min 0 min 42 W/m 4,5 km/h (1 Bft) 95,74 %
27.07.2018 20:12 34,1 C 31,7 C 29,4 C 37 % 1005,5 hPa 0,0 l/m 0 min 0 min 42 W/m 4,5 km/h (1 Bft) 93,62 %
27.07.2018 20:14 34,0 C 31,7 C 29,4 C 38 % 1005,6 hPa 0,0 l/m 0 min 0 min 40 W/m 6,8 km/h (2 Bft) 95,74 %
27.07.2018 20:16 33,8 C 31,7 C 29,4 C 37 % 1005,6 hPa 0,0 l/m 0 min 0 min 39 W/m 9,0 km/h (2 Bft) 97,56 %
27.07.2018 20:18 33,7 C 31,7 C 29,4 C 37 % 1005,5 hPa 0,0 l/m 0 min 0 min 39 W/m 6,8 km/h (2 Bft) 93,75 %
27.07.2018 20:20 33,6 C 31,1 C 29,4 C 37 % 1005,5 hPa 0,0 l/m 0 min 0 min 37 W/m 6,8 km/h (2 Bft) 95,74 %
27.07.2018 20:22 33,5 C 31,1 C 29,4 C 37 % 1005,5 hPa 0,0 l/m 0 min 0 min 36 W/m 9,0 km/h (2 Bft) 93,75 %
27.07.2018 20:24 33,4 C 31,1 C 29,4 C 37 % 1005,5 hPa 0,0 l/m 0 min 0 min 33 W/m 6,8 km/h (2 Bft) 95,24 %
27.07.2018 20:26 33,3 C 31,1 C 29,4 C 38 % 1005,5 hPa 0,0 l/m 0 min 0 min 32 W/m 4,5 km/h (1 Bft) 95,74 %
27.07.2018 20:28 33,2 C 31,1 C 29,4 C 38 % 1005,5 hPa 0,0 l/m 0 min 0 min 31 W/m 4,5 km/h (1 Bft) 95,74 %
27.07.2018 20:30 33,2 C 31,1 C 28,9 C 39 % 1005,4 hPa 0,0 l/m 0 min 0 min 29 W/m 2,3 km/h (1 Bft) 95,24 %
27.07.2018 20:32 33,1 C 30,6 C 28,9 C 39 % 1005,5 hPa 0,0 l/m 0 min 0 min 27 W/m 4,5 km/h (1 Bft) 96,00 %
27.07.2018 20:34 33,0 C 30,6 C 28,9 C 39 % 1005,6 hPa 0,0 l/m 0 min 0 min 25 W/m 4,5 km/h (1 Bft) 95,74 %
27.07.2018 20:36 32,9 C 30,6 C 28,9 C 40 % 1005,6 hPa 0,0 l/m 0 min 0 min 23 W/m 6,8 km/h (2 Bft) 95,83 %
27.07.2018 20:38 32,8 C 30,6 C 28,9 C 38 % 1005,6 hPa 0,0 l/m 0 min 0 min 21 W/m 4,5 km/h (1 Bft) 93,62 %
27.07.2018 20:40 32,7 C 30,6 C 28,9 C 39 % 1005,6 hPa 0,0 l/m 0 min 0 min 19 W/m 4,5 km/h (1 Bft) 97,87 %
27.07.2018 20:42 32,6 C 30,0 C 28,3 C 40 % 1005,6 hPa 0,0 l/m 0 min 0 min 18 W/m 4,5 km/h (1 Bft) 95,65 %
27.07.2018 20:44 32,5 C 30,0 C 28,3 C 39 % 1005,6 hPa 0,0 l/m 0 min 0 min 18 W/m 4,5 km/h (1 Bft) 97,87 %
27.07.2018 20:46 32,4 C 30,0 C 28,3 C 40 % 1005,6 hPa 0,0 l/m 0 min 0 min 16 W/m 4,5 km/h (1 Bft) 97,87 %
27.07.2018 20:48 32,3 C 30,0 C 28,3 C 40 % 1005,6 hPa 0,0 l/m 0 min 0 min 16 W/m 4,5 km/h (1 Bft) 93,62 %
27.07.2018 20:50 32,3 C 29,4 C 28,3 C 41 % 1005,6 hPa 0,0 l/m 0 min 0 min 16 W/m 4,5 km/h (1 Bft) 95,74 %
27.07.2018 20:52 32,2 C 29,4 C 27,8 C 41 % 1005,7 hPa 0,0 l/m 0 min 0 min 16 W/m 4,5 km/h (1 Bft) 98,00 %
27.07.2018 20:54 32,1 C 29,4 C 27,8 C 41 % 1005,7 hPa 0,0 l/m 0 min 0 min 16 W/m 4,5 km/h (1 Bft) 100,00 %
27.07.2018 20:56 32,0 C 29,4 C 27,8 C 42 % 1005,7 hPa 0,0 l/m 0 min 0 min 15 W/m 4,5 km/h (1 Bft) 97,87 %
27.07.2018 20:58 31,9 C 28,9 C 27,8 C 42 % 1005,7 hPa 0,0 l/m 0 min 0 min 14 W/m 2,3 km/h (1 Bft) 97,62 %
27.07.2018 21:00 31,8 C 28,9 C 27,2 C 44 % 1005,7 hPa 0,0 l/m 0 min 0 min 12 W/m 2,3 km/h (1 Bft) 94,00 %
27.07.2018 21:02 31,7 C 28,9 C 27,2 C 44 % 1005,6 hPa 0,0 l/m 0 min 0 min 11 W/m 4,5 km/h (1 Bft) 100,00 %
27.07.2018 21:04 31,6 C 28,3 C 27,2 C 43 % 1005,6 hPa 0,0 l/m 0 min 0 min 9 W/m 4,5 km/h (1 Bft) 100,00 %
27.07.2018 21:06 31,5 C 28,3 C 26,7 C 45 % 1005,6 hPa 0,0 l/m 0 min 0 min 9 W/m 4,5 km/h (1 Bft) 97,87 %
27.07.2018 21:08 31,3 C 27,8 C 26,1 C 45 % 1005,6 hPa 0,0 l/m 0 min 0 min 8 W/m 2,3 km/h (1 Bft) 97,96 %
27.07.2018 21:10 31,2 C 27,8 C 26,1 C 44 % 1005,6 hPa 0,0 l/m 0 min 0 min 7 W/m 4,5 km/h (1 Bft) 97,92 %
27.07.2018 21:12 31,1 C 27,8 C 26,1 C 45 % 1005,6 hPa 0,0 l/m 0 min 0 min 7 W/m 4,5 km/h (1 Bft) 100,00 %
27.07.2018 21:14 31,0 C 27,8 C 25,6 C 46 % 1005,6 hPa 0,0 l/m 0 min 0 min 7 W/m 2,3 km/h (1 Bft) 97,87 %
27.07.2018 21:16 30,8 C 27,8 C 25,6 C 46 % 1005,6 hPa 0,0 l/m 0 min 0 min 7 W/m 2,3 km/h (1 Bft) 97,83 %
27.07.2018 21:18 30,7 C 27,2 C 25,6 C 46 % 1005,6 hPa 0,0 l/m 0 min 0 min 7 W/m 4,5 km/h (1 Bft) 97,87 %
27.07.2018 21:20 30,6 C 27,2 C 25,6 C 47 % 1005,6 hPa 0,0 l/m 0 min 0 min 6 W/m 4,5 km/h (1 Bft) 97,87 %
27.07.2018 21:22 30,4 C 27,2 C 25,6 C 46 % 1005,7 hPa 0,0 l/m 0 min 0 min 5 W/m 2,3 km/h (1 Bft) 95,74 %
27.07.2018 21:24 30,3 C 27,2 C 25,6 C 47 % 1005,6 hPa 0,0 l/m 0 min 0 min 5 W/m 4,5 km/h (1 Bft) 97,87 %
27.07.2018 21:26 30,2 C 27,2 C 25,0 C 47 % 1005,6 hPa 0,0 l/m 0 min 0 min 5 W/m 2,3 km/h (1 Bft) 95,74 %
27.07.2018 21:28 30,1 C 27,2 C 25,0 C 47 % 1005,5 hPa 0,0 l/m 0 min 0 min 2 W/m 4,5 km/h (1 Bft) 97,83 %
27.07.2018 21:30 30,0 C 27,2 C 25,0 C 47 % 1005,5 hPa 0,0 l/m 0 min 0 min 0 W/m 4,5 km/h (1 Bft) 97,87 %
27.07.2018 21:32 29,9 C 27,2 C 25,0 C 48 % 1005,5 hPa 0,0 l/m 0 min 0 min 0 W/m 4,5 km/h (1 Bft) 97,73 %
27.07.2018 21:34 29,8 C 27,2 C 25,0 C 47 % 1005,6 hPa 0,0 l/m 0 min 0 min 0 W/m 4,5 km/h (1 Bft) 97,87 %
27.07.2018 21:36 29,7 C 27,2 C 25,0 C 47 % 1005,5 hPa 0,0 l/m 0 min 0 min 0 W/m 4,5 km/h (1 Bft) 97,92 %
27.07.2018 21:38 29,6 C 27,2 C 25,0 C 47 % 1005,6 hPa 0,0 l/m 0 min 0 min 0 W/m 4,5 km/h (1 Bft) 97,92 %
27.07.2018 21:40 29,4 C 27,2 C 25,0 C 48 % 1005,5 hPa 0,0 l/m 0 min 0 min 0 W/m 4,5 km/h (1 Bft) 95,74 %
27.07.2018 21:42 29,4 C 27,2 C 25,0 C 47 % 1005,6 hPa 0,0 l/m 0 min 0 min 0 W/m 4,5 km/h (1 Bft) 97,92 %
27.07.2018 21:44 29,3 C 26,7 C 25,0 C 49 % 1005,5 hPa 0,0 l/m 0 min 0 min 0 W/m 2,3 km/h (1 Bft) 91,49 %
27.07.2018 21:46 29,2 C 26,7 C 25,0 C 49 % 1005,6 hPa 0,0 l/m 0 min 0 min 0 W/m 2,3 km/h (1 Bft) 97,87 %
27.07.2018 21:48 29,2 C 26,7 C 25,0 C 48 % 1005,6 hPa 0,0 l/m 0 min 0 min 0 W/m 4,5 km/h (1 Bft) 95,74 %
27.07.2018 21:50 29,1 C 26,7 C 25,0 C 48 % 1005,6 hPa 0,0 l/m 0 min 0 min 0 W/m 2,3 km/h (1 Bft) 97,83 %
27.07.2018 21:52 29,0 C 26,7 C 25,0 C 49 % 1005,7 hPa 0,0 l/m 0 min 0 min 0 W/m 0,0 km/h (0 Bft) 93,62 %
27.07.2018 21:54 28,9 C 26,7 C 25,0 C 48 % 1005,7 hPa 0,0 l/m 0 min 0 min 0 W/m 0,0 km/h (0 Bft) 98,00 %
27.07.2018 21:56 28,8 C 26,7 C 25,0 C 48 % 1005,7 hPa 0,0 l/m 0 min 0 min 0 W/m 0,0 km/h (0 Bft) 97,87 %
27.07.2018 21:58 28,8 C 26,1 C 24,4 C 49 % 1005,7 hPa 0,0 l/m 0 min 0 min 0 W/m 0,0 km/h (0 Bft) 97,87 %
27.07.2018 22:00 28,7 C 26,1 C 24,4 C 49 % 1005,7 hPa 0,0 l/m 0 min 0 min 0 W/m 0,0 km/h (0 Bft) 97,56 %
27.07.2018 22:02 28,7 C 26,1 C 24,4 C 50 % 1005,7 hPa 0,0 l/m 0 min 0 min 0 W/m 0,0 km/h (0 Bft) 97,87 %
27.07.2018 22:04 28,6 C 26,1 C 24,4 C 51 % 1005,7 hPa 0,0 l/m 0 min 0 min 0 W/m 0,0 km/h (0 Bft) 98,00 %
27.07.2018 22:06 28,6 C 26,1 C 24,4 C 50 % 1005,7 hPa 0,0 l/m 0 min 0 min 0 W/m 0,0 km/h (0 Bft) 97,92 %
27.07.2018 22:08 28,5 C 26,1 C 24,4 C 50 % 1005,7 hPa 0,0 l/m 0 min 0 min 0 W/m 0,0 km/h (0 Bft) 97,92 %
27.07.2018 22:10 28,4 C 26,1 C 24,4 C 50 % 1005,8 hPa 0,0 l/m 0 min 0 min 0 W/m 0,0 km/h (0 Bft) 95,74 %
27.07.2018 22:12 28,4 C 26,1 C 24,4 C 51 % 1005,8 hPa 0,0 l/m 0 min 0 min 0 W/m 0,0 km/h (0 Bft) 95,65 %
27.07.2018 22:14 28,3 C 26,1 C 24,4 C 51 % 1005,7 hPa 0,0 l/m 0 min 0 min 0 W/m 0,0 km/h (0 Bft) 97,87 %
27.07.2018 22:16 28,2 C 25,6 C 23,9 C 51 % 1005,7 hPa 0,0 l/m 0 min 0 min 0 W/m 0,0 km/h (0 Bft) 97,87 %
27.07.2018 22:18 28,1 C 25,6 C 23,9 C 51 % 1005,7 hPa 0,0 l/m 0 min 0 min 0 W/m 0,0 km/h (0 Bft) 97,87 %
27.07.2018 22:20 28,1 C 25,6 C 23,9 C 52 % 1005,7 hPa 0,0 l/m 0 min 0 min 0 W/m 0,0 km/h (0 Bft) 97,87 %
27.07.2018 22:22 28,0 C 25,6 C 23,9 C 52 % 1005,7 hPa 0,0 l/m 0 min 0 min 0 W/m 0,0 km/h (0 Bft) 93,62 %
27.07.2018 22:24 27,9 C 25,6 C 23,9 C 51 % 1005,7 hPa 0,0 l/m 0 min 0 min 0 W/m 0,0 km/h (0 Bft) 97,83 %
27.07.2018 22:26 27,8 C 25,6 C 23,9 C 52 % 1005,7 hPa 0,0 l/m 0 min 0 min 0 W/m 0,0 km/h (0 Bft) 100,00 %
27.07.2018 22:28 27,8 C 25,0 C 23,9 C 53 % 1005,7 hPa 0,0 l/m 0 min 0 min 0 W/m 0,0 km/h (0 Bft) 97,67 %
27.07.2018 22:30 27,7 C 25,0 C 23,9 C 53 % 1005,7 hPa 0,0 l/m 0 min 0 min 0 W/m 0,0 km/h (0 Bft) 97,96 %
27.07.2018 22:32 27,6 C 25,0 C 23,3 C 53 % 1005,7 hPa 0,0 l/m 0 min 0 min 0 W/m 0,0 km/h (0 Bft) 94,74 %
27.07.2018 22:34 27,6 C 25,0 C 23,3 C 52 % 1005,7 hPa 0,0 l/m 0 min 0 min 0 W/m 0,0 km/h (0 Bft) 95,74 %
27.07.2018 22:36 27,4 C 25,0 C 23,3 C 53 % 1005,7 hPa 0,0 l/m 0 min 0 min 0 W/m 0,0 km/h (0 Bft) 97,83 %
27.07.2018 22:38 27,4 C 25,0 C 23,3 C 53 % 1005,7 hPa 0,0 l/m 0 min 0 min 0 W/m 0,0 km/h (0 Bft) 97,92 %
27.07.2018 22:40 27,3 C 25,0 C 23,3 C 53 % 1005,7 hPa 0,0 l/m 0 min 0 min 0 W/m 0,0 km/h (0 Bft) 95,65 %
27.07.2018 22:42 27,3 C 25,0 C 23,3 C 55 % 1005,7 hPa 0,0 l/m 0 min 0 min 0 W/m 0,0 km/h (0 Bft) 95,74 %
27.07.2018 22:44 27,2 C 25,0 C 23,3 C 54 % 1005,7 hPa 0,0 l/m 0 min 0 min 0 W/m 0,0 km/h (0 Bft) 97,87 %
27.07.2018 22:46 27,1 C 25,0 C 23,3 C 53 % 1005,7 hPa 0,0 l/m 0 min 0 min 0 W/m 0,0 km/h (0 Bft) 97,87 %
27.07.2018 22:48 27,0 C 24,4 C 23,3 C 54 % 1005,6 hPa 0,0 l/m 0 min 0 min 0 W/m 0,0 km/h (0 Bft) 97,87 %
27.07.2018 22:50 26,9 C 24,4 C 23,3 C 54 % 1005,6 hPa 0,0 l/m 0 min 0 min 0 W/m 0,0 km/h (0 Bft) 97,56 %
27.07.2018 22:52 26,9 C 24,4 C 23,3 C 54 % 1005,6 hPa 0,0 l/m 0 min 0 min 0 W/m 0,0 km/h (0 Bft) 97,92 %
27.07.2018 22:54 26,8 C 24,4 C 23,3 C 54 % 1005,6 hPa 0,0 l/m 0 min 0 min 0 W/m 0,0 km/h (0 Bft) 97,87 %
27.07.2018 22:56 26,8 C 24,4 C 23,3 C 54 % 1005,6 hPa 0,0 l/m 0 min 0 min 0 W/m 0,0 km/h (0 Bft) 95,83 %
27.07.2018 22:58 26,7 C 24,4 C 23,3 C 55 % 1005,5 hPa 0,0 l/m 0 min 0 min 0 W/m 0,0 km/h (0 Bft) 95,83 %
27.07.2018 23:00 26,6 C 24,4 C 23,3 C 54 % 1005,6 hPa 0,0 l/m 0 min 0 min 0 W/m 0,0 km/h (0 Bft) 97,83 %
27.07.2018 23:02 26,6 C 24,4 C 22,8 C 55 % 1005,6 hPa 0,0 l/m 0 min 0 min 0 W/m 0,0 km/h (0 Bft) 97,87 %
27.07.2018 23:04 26,5 C 24,4 C 22,8 C 54 % 1005,6 hPa 0,0 l/m 0 min 0 min 0 W/m 0,0 km/h (0 Bft) 98,00 %
27.07.2018 23:06 26,4 C 24,4 C 22,8 C 55 % 1005,5 hPa 0,0 l/m 0 min 0 min 0 W/m 0,0 km/h (0 Bft) 100,00 %
27.07.2018 23:08 26,3 C 23,9 C 22,8 C 56 % 1005,5 hPa 0,0 l/m 0 min 0 min 0 W/m 0,0 km/h (0 Bft) 97,87 %
27.07.2018 23:10 26,3 C 23,9 C 22,8 C 56 % 1005,4 hPa 0,0 l/m 0 min 0 min 0 W/m 0,0 km/h (0 Bft) 97,87 %
27.07.2018 23:12 26,2 C 23,9 C 22,8 C 56 % 1005,4 hPa 0,0 l/m 0 min 0 min 0 W/m 0,0 km/h (0 Bft) 95,74 %
27.07.2018 23:14 26,2 C 23,9 C 22,8 C 57 % 1005,4 hPa 0,0 l/m 0 min 0 min 0 W/m 0,0 km/h (0 Bft) 97,83 %
27.07.2018 23:16 26,1 C 23,9 C 22,8 C 56 % 1005,5 hPa 0,0 l/m 0 min 0 min 0 W/m 0,0 km/h (0 Bft) 97,87 %
27.07.2018 23:18 26,0 C 23,9 C 22,8 C 57 % 1005,5 hPa 0,0 l/m 0 min 0 min 0 W/m 0,0 km/h (0 Bft) 95,74 %
27.07.2018 23:20 25,9 C 23,9 C 22,8 C 57 % 1005,5 hPa 0,0 l/m 0 min 0 min 0 W/m 0,0 km/h (0 Bft) 97,87 %
27.07.2018 23:22 25,9 C 23,9 C 22,8 C 57 % 1005,5 hPa 0,0 l/m 0 min 0 min 0 W/m 0,0 km/h (0 Bft) 97,87 %
27.07.2018 23:24 25,8 C 23,9 C 22,8 C 57 % 1005,5 hPa 0,0 l/m 0 min 0 min 0 W/m 0,0 km/h (0 Bft) 97,96 %
27.07.2018 23:26 25,8 C 23,9 C 22,8 C 57 % 1005,4 hPa 0,0 l/m 0 min 0 min 0 W/m 0,0 km/h (0 Bft) 97,87 %
27.07.2018 23:28 25,7 C 23,9 C 22,8 C 57 % 1005,4 hPa 0,0 l/m 0 min 0 min 0 W/m 0,0 km/h (0 Bft) 95,74 %
27.07.2018 23:30 25,6 C 23,9 C 22,8 C 57 % 1005,4 hPa 0,0 l/m 0 min 0 min 0 W/m 0,0 km/h (0 Bft) 97,87 %
27.07.2018 23:32 25,6 C 23,9 C 22,2 C 57 % 1005,4 hPa 0,0 l/m 0 min 0 min 0 W/m 0,0 km/h (0 Bft) 97,96 %
27.07.2018 23:34 25,6 C 23,3 C 22,2 C 57 % 1005,5 hPa 0,0 l/m 0 min 0 min 0 W/m 0,0 km/h (0 Bft) 97,87 %
27.07.2018 23:36 25,5 C 23,3 C 22,2 C 57 % 1005,5 hPa 0,0 l/m 0 min 0 min 0 W/m 0,0 km/h (0 Bft) 95,65 %
27.07.2018 23:38 25,4 C 23,3 C 22,2 C 58 % 1005,5 hPa 0,0 l/m 0 min 0 min 0 W/m 0,0 km/h (0 Bft) 97,87 %
27.07.2018 23:40 25,4 C 23,3 C 22,2 C 58 % 1005,5 hPa 0,0 l/m 0 min 0 min 0 W/m 0,0 km/h (0 Bft) 97,62 %
27.07.2018 23:42 25,3 C 23,3 C 22,2 C 58 % 1005,4 hPa 0,0 l/m 0 min 0 min 0 W/m 0,0 km/h (0 Bft) 97,87 %
27.07.2018 23:44 25,2 C 23,3 C 22,2 C 58 % 1005,4 hPa 0,0 l/m 0 min 0 min 0 W/m 2,3 km/h (1 Bft) 97,87 %
27.07.2018 23:46 25,2 C 23,3 C 22,2 C 58 % 1005,4 hPa 0,0 l/m 0 min 0 min 0 W/m 0,0 km/h (0 Bft) 97,92 %
27.07.2018 23:48 25,1 C 23,3 C 22,2 C 58 % 1005,4 hPa 0,0 l/m 0 min 0 min 0 W/m 0,0 km/h (0 Bft) 95,74 %
27.07.2018 23:50 25,1 C 23,3 C 22,2 C 58 % 1005,4 hPa 0,0 l/m 0 min 0 min 0 W/m 0,0 km/h (0 Bft) 97,87 %
27.07.2018 23:52 25,1 C 22,8 C 22,2 C 58 % 1005,4 hPa 0,0 l/m 0 min 0 min 0 W/m 0,0 km/h (0 Bft) 97,87 %
27.07.2018 23:54 25,0 C 22,8 C 22,2 C 58 % 1005,4 hPa 0,0 l/m 0 min 0 min 0 W/m 0,0 km/h (0 Bft) 96,23 %
27.07.2018 23:56 24,9 C 22,8 C 22,2 C 59 % 1005,4 hPa 0,0 l/m 0 min 0 min 0 W/m 0,0 km/h (0 Bft) 95,12 %
27.07.2018 23:58 24,9 C 22,8 C 22,2 C 59 % 1005,4 hPa 0,0 l/m 0 min 0 min 0 W/m 0,0 km/h (0 Bft) 95,83 %
_ Min-Zeit 06:54 05:34 06:12 18:18 20:30 - - - - 00:00 11:22
Minimum _ 19,7 C 18,9 C 18,3 C 31 % 1005,4 hPa - - - - 0,0 km/h (0 Bft) 89,36 %
_ Max-Zeit 13:22 13:00 18:12 07:26 01:40 16:02 14:01 00:00 14:34 12:24 00:12
Maximum _ 36,5 C 43,3 C 33,3 C 79 % 1011,7 hPa 4,2 l/m 5 min 0 min 858 W/m 18,0 km/h
SO (3 Bft)
100,00 %
Durchschnitt _ 28,8 C 28,9 C 25,6 C 52 % 1009,1 hPa #4,2 l/m #10:34 h #0 min. 441 W/m 5,2 km/h (1 Bft) 97,57 %
© 2018 W. Hausmann